W4HSV Weather Reports


time (UTC)temp
C
wind
direction
speed
KPH
gust
KPH
rain 1hr
cm
rain 24hr
cm
rain mn
cm
humidity
%
barometer
mb
20260509235920 23 348 0.0 1.6 0.00 0.00 0.00 64 1010.6
20260509235831 23 348 0.0 1.6 0.00 0.00 0.00 63 1010.6
20260509235718 23 348 0.0 1.6 0.00 0.00 0.00 63 1010.6
20260509235625 23 348 0.0 1.6 0.00 0.00 0.00 63 1010.6
20260509235531 23 348 0.0 1.6 0.00 0.00 0.00 62 1010.5
20260509235439 23 348 0.0 1.6 0.00 0.00 0.00 63 1010.5
20260509235326 23 348 0.0 0.0 0.00 0.00 0.00 63 1010.5
20260509235238 23 348 0.0 1.6 0.00 0.00 0.00 62 1010.5
20260509235123 23 348 0.0 1.6 0.00 0.00 0.00 63 1010.5
20260509235054 23 348 0.0 1.6 0.00 0.00 0.00 62 1010.5
20260509234827 23 348 0.0 1.6 0.00 0.00 0.00 63 1010.5
20260509234714 23 348 0.0 1.6 0.00 0.00 0.00 63 1010.6
20260509234627 23 348 0.0 1.6 0.00 0.00 0.00 64 1010.6
20260509234533 23 348 0.0 1.6 0.00 0.00 0.00 64 1010.5
20260509234420 23 348 0.0 1.6 0.00 0.00 0.00 64 1010.4
20260509234326 23 348 0.0 1.6 0.00 0.00 0.00 63 1010.4
20260509234213 23 348 0.0 4.8 0.00 0.00 0.00 63 1010.4
20260509234121 23 348 0.0 4.8 0.00 0.00 0.00 63 1010.5
20260509234032 23 348 0.0 4.8 0.00 0.00 0.00 63 1010.5
20260509233920 23 348 0.0 4.8 0.00 0.00 0.00 63 1010.4
20260509233828 23 348 0.0 4.8 0.00 0.00 0.00 63 1010.4
20260509233715 23 348 1.6 4.8 0.00 0.00 0.00 63 1010.3
20260509233622 23 348 1.6 4.8 0.00 0.00 0.00 63 1010.3
20260509233557 23 348 3.2 4.8 0.00 0.00 0.00 63 1010.3
20260509233331 23 348 3.2 4.8 0.00 0.00 0.00 62 1010.2
20260509233219 24 344 1.6 4.8 0.00 0.00 0.00 62 1010.2
20260509233126 23 321 1.6 4.8 0.00 0.00 0.00 62 1010.2
20260509233017 24 321 3.2 4.8 0.00 0.00 0.00 62 1010.4
20260509232945 24 321 3.2 4.8 0.00 0.00 0.00 62 1010.4
20260509232852 24 312 3.2 4.8 0.00 0.00 0.00 63 1010.4
20260509232718 24 304 1.6 3.2 0.00 0.00 0.00 62 1010.4
20260509232626 24 304 1.6 3.2 0.00 0.00 0.00 62 1010.4
20260509232513 24 304 0.0 4.8 0.00 0.00 0.00 63 1010.5
20260509232420 24 304 1.6 4.8 0.00 0.00 0.00 63 1010.6
20260509232312 24 304 1.6 4.8 0.00 0.00 0.00 63 1010.5
20260509232220 24 304 1.6 4.8 0.00 0.00 0.00 63 1010.5
20260509232128 24 304 1.6 4.8 0.00 0.00 0.00 62 1010.5
20260509232058 24 304 1.6 4.8 0.00 0.00 0.00 62 1010.6
20260509231816 24 304 3.2 4.8 0.00 0.00 0.00 62 1010.6
20260509231724 24 306 3.2 4.8 0.00 0.00 0.00 62 1010.6
20260509231612 24 306 3.2 4.8 0.00 0.00 0.00 62 1010.5
20260509231518 24 299 1.6 4.8 0.00 0.00 0.00 62 1010.5
20260509231447 24 294 1.6 4.8 0.00 0.00 0.00 62 1010.5
20260509231314 24 286 1.6 6.4 0.00 0.00 0.00 62 1010.5
20260509231226 24 286 1.6 6.4 0.00 0.00 0.00 62 1010.5
20260509231113 24 263 1.6 6.4 0.00 0.00 0.00 63 1010.5
20260509231021 24 255 1.6 8.0 0.00 0.00 0.00 63 1010.4
20260509230930 24 255 1.6 8.0 0.00 0.00 0.00 63 1010.4
20260509230837 24 271 3.2 8.0 0.00 0.00 0.00 62 1010.4
20260509230723 24 273 3.2 8.0 0.00 0.00 0.00 62 1010.4
20260509230635 24 300 3.2 8.0 0.00 0.00 0.00 61 1010.4
20260509230605 24 348 3.2 8.0 0.00 0.00 0.00 61 1010.4
20260509230318 24 315 4.8 8.0 0.00 0.00 0.00 61 1010.5
20260509230225 24 321 4.8 8.0 0.00 0.00 0.00 61 1010.5
20260509230116 24 340 3.2 6.4 0.00 0.00 0.00 61 1010.4
20260509230022 24 346 3.2 4.8 0.00 0.00 0.00 61 1010.4
20260509225930 24 346 3.2 4.8 0.00 0.00 0.00 61 1010.4
20260509225838 25 346 3.2 6.4 0.00 0.00 0.00 60 1010.4
20260509225725 24 346 3.2 6.4 0.00 0.00 0.00 60 1010.4
20260509225613 25 289 3.2 6.4 0.00 0.00 0.00 61 1010.4
20260509225523 25 304 3.2 6.4 0.00 0.00 0.00 61 1010.4
20260509225431 25 252 3.2 6.4 0.00 0.00 0.00 61 1010.5
20260509225337 25 267 3.2 8.0 0.00 0.00 0.00 61 1010.3
20260509225244 25 293 3.2 8.0 0.00 0.00 0.00 60 1010.3
20260509225130 25 293 3.2 8.0 0.00 0.00 0.00 61 1010.3
20260509225105 25 310 3.2 8.0 0.00 0.00 0.00 60 1010.2
20260509224818 25 312 4.8 8.0 0.00 0.00 0.00 60 1010.3
20260509224725 25 325 4.8 8.0 0.00 0.00 0.00 60 1010.3
20260509224614 25 298 6.4 8.0 0.00 0.00 0.00 60 1010.3
20260509224520 25 344 4.8 8.0 0.00 0.00 0.00 60 1010.4
20260509224413 25 327 3.2 8.0 0.00 0.00 0.00 60 1010.3
20260509224321 25 317 3.2 8.0 0.00 0.00 0.00 60 1010.3
20260509224248 25 315 3.2 8.0 0.00 0.00 0.00 60 1010.3
20260509224113 25 330 4.8 8.0 0.00 0.00 0.00 61 1010.3
20260509224021 25 340 4.8 8.0 0.00 0.00 0.00 61 1010.3
20260509223949 25 348 4.8 8.0 0.00 0.00 0.00 60 1010.3
20260509223816 25 333 4.8 8.0 0.00 0.00 0.00 60 1010.3
20260509223727 25 336 3.2 8.0 0.00 0.00 0.00 60 1010.3
20260509223655 25 259 3.2 8.0 0.00 0.00 0.00 60 1010.3
20260509223604 25 263 4.8 8.0 0.00 0.00 0.00 60 1010.3
20260509223319 25 329 4.8 8.0 0.00 0.00 0.00 60 1010.3
20260509223226 25 334 4.8 8.0 0.00 0.00 0.00 60 1010.3
20260509223136 25 321 4.8 8.0 0.00 0.00 0.00 60 1010.2
20260509223023 25 315 4.8 8.0 0.00 0.00 0.00 60 1010.2
20260509222951 25 310 3.2 8.0 0.00 0.00 0.00 60 1010.2
20260509222817 25 332 1.6 6.4 0.00 0.00 0.00 60 1010.2
20260509222724 25 304 1.6 6.4 0.00 0.00 0.00 60 1010.2
20260509222630 25 275 3.2 6.4 0.00 0.00 0.00 61 1010.2
20260509222522 25 300 3.2 6.4 0.00 0.00 0.00 60 1010.1
20260509222431 25 302 3.2 6.4 0.00 0.00 0.00 61 1010.1
20260509222317 25 335 3.2 6.4 0.00 0.00 0.00 61 1010.2
20260509222225 25 342 3.2 6.4 0.00 0.00 0.00 61 1010.2
20260509222133 25 309 3.2 8.0 0.00 0.00 0.00 61 1010.2
20260509222108 25 311 3.2 8.0 0.00 0.00 0.00 60 1010.2
20260509221839 25 300 3.2 8.0 0.00 0.00 0.00 60 1010.1
20260509221725 25 342 3.2 8.0 0.00 0.00 0.00 60 1010.1
20260509221612 25 325 3.2 8.0 0.00 0.00 0.00 59 1010.1
20260509221540 25 325 3.2 8.0 0.00 0.00 0.00 59 1010.1
20260509221448 25 308 4.8 8.0 0.00 0.00 0.00 60 1010.1
20260509221338 25 281 4.8 8.0 0.00 0.00 0.00 60 1010.1
20260509221223 25 301 6.4 8.0 0.00 0.00 0.00 60 1010.1
20260509221151 25 313 4.8 8.0 0.00 0.00 0.00 60 1010.1
20260509221017 25 338 4.8 9.7 0.00 0.00 0.00 60 1010.1
20260509220924 25 355 4.8 9.7 0.00 0.00 0.00 61 1010.1
20260509220831 25 355 4.8 9.7 0.00 0.00 0.00 61 1010.0
20260509220719 25 351 3.2 12.9 0.00 0.00 0.00 60 1010.1
20260509220650 25 350 4.8 12.9 0.00 0.00 0.00 60 1010.1
20260509220600 25 339 4.8 12.9 0.00 0.00 0.00 60 1010.2
20260509220335 25 344 6.4 12.9 0.00 0.00 0.00 60 1010.2
20260509220222 25 347 6.4 12.9 0.00 0.00 0.00 61 1010.2
20260509220129 25 330 6.4 12.9 0.00 0.00 0.00 60 1010.1
20260509220020 25 323 6.4 12.9 0.00 0.00 0.00 60 1010.1
20260509215927 25 294 6.4 11.3 0.00 0.00 0.00 60 1010.1
20260509215814 25 278 4.8 11.3 0.00 0.00 0.00 60 1010.1
20260509215721 25 292 4.8 9.7 0.00 0.00 0.00 61 1010.1
20260509215648 25 334 4.8 9.7 0.00 0.00 0.00 61 1010.1
20260509215514 25 360 4.8 9.7 0.00 0.00 0.00 61 1010.2
20260509215446 25 334 6.4 9.7 0.00 0.00 0.00 61 1010.2
20260509215313 25 360 6.4 9.7 0.00 0.00 0.00 61 1010.1
20260509215220 25 5 4.8 9.7 0.00 0.00 0.00 60 1010.0
20260509215129 25 360 4.8 9.7 0.00 0.00 0.00 60 1010.0
20260509215059 25 346 4.8 12.9 0.00 0.00 0.00 60 1010.1
20260509214838 25 327 3.2 12.9 0.00 0.00 0.00 60 1010.1
20260509214743 25 294 3.2 12.9 0.00 0.00 0.00 61 1010.1
20260509214628 25 266 3.2 12.9 0.00 0.00 0.00 61 1010.1
20260509214517 25 338 4.8 12.9 0.00 0.00 0.00 61 1010.1
20260509214444 25 322 4.8 12.9 0.00 0.00 0.00 61 1010.1
20260509214330 25 300 4.8 12.9 0.00 0.00 0.00 61 1010.0
20260509214239 25 336 6.4 12.9 0.00 0.00 0.00 61 1010.1
20260509214150 25 344 8.0 12.9 0.00 0.00 0.00 61 1010.1
20260509214016 25 286 8.0 12.9 0.00 0.00 0.00 61 1010.1
20260509213923 25 300 6.4 12.9 0.00 0.00 0.00 61 1010.1
20260509213832 25 258 4.8 11.3 0.00 0.00 0.00 61 1010.0
20260509213720 25 284 4.8 11.3 0.00 0.00 0.00 61 1010.0
20260509213627 25 320 4.8 8.0 0.00 0.00 0.00 61 1010.0
20260509213601 25 355 4.8 8.0 0.00 0.00 0.00 61 1010.1
20260509213316 25 355 4.8 12.9 0.00 0.00 0.00 60 1010.1
20260509213222 25 344 4.8 12.9 0.00 0.00 0.00 61 1010.1
20260509213130 25 319 3.2 12.9 0.00 0.00 0.00 60 1010.0
20260509213022 25 315 1.6 12.9 0.00 0.00 0.00 60 1010.0
20260509212929 25 316 3.2 12.9 0.00 0.00 0.00 60 1010.0
20260509212837 25 323 4.8 12.9 0.00 0.00 0.00 61 1010.0
20260509212723 25 323 6.4 12.9 0.00 0.00 0.00 60 1010.0
20260509212650 25 355 8.0 12.9 0.00 0.00 0.00 61 1009.9
20260509212516 25 323 6.4 9.7 0.00 0.00 0.00 61 1010.0
20260509212424 25 332 4.8 9.7 0.00 0.00 0.00 60 1010.0
20260509212314 25 320 4.8 9.7 0.00 0.00 0.00 61 1010.1
20260509212222 25 338 6.4 9.7 0.00 0.00 0.00 60 1010.1
20260509212130 25 338 4.8 12.9 0.00 0.00 0.00 62 1010.1
20260509212101 25 290 6.4 12.9 0.00 0.00 0.00 62 1010.1
20260509211820 25 279 8.0 12.9 0.00 0.00 0.00 62 1010.0
20260509211727 25 281 6.4 12.9 0.00 0.00 0.00 62 1010.0
20260509211613 25 261 4.8 12.9 0.00 0.00 0.00 61 1010.1
20260509211521 25 313 4.8 12.9 0.00 0.00 0.00 61 1010.1
20260509211430 25 290 4.8 12.9 0.00 0.00 0.00 62 1010.1
20260509211322 25 333 6.4 12.9 0.00 0.00 0.00 62 1010.1
20260509211230 25 332 6.4 12.9 0.00 0.00 0.00 62 1010.0
20260509211118 25 355 4.8 11.3 0.00 0.00 0.00 61 1010.1
20260509211026 25 315 4.8 9.7 0.00 0.00 0.00 62 1010.1
20260509210915 25 355 4.8 12.9 0.00 0.00 0.00 62 1010.2
20260509210822 25 321 4.8 14.5 0.00 0.00 0.00 62 1010.2
20260509210713 25 319 6.4 16.1 0.00 0.00 0.00 62 1010.1
20260509210621 25 337 6.4 16.1 0.00 0.00 0.00 62 1010.1
20260509210551 25 347 6.4 16.1 0.00 0.00 0.00 61 1010.0
20260509210325 25 291 8.0 16.1 0.00 0.00 0.00 60 1010.0
20260509210213 25 302 9.7 16.1 0.00 0.00 0.00 60 1010.0
20260509210121 25 309 11.3 16.1 0.00 0.00 0.00 61 1010.1
20260509210027 25 309 9.7 16.1 0.00 0.00 0.00 60 1010.1
20260509205915 25 315 6.4 16.1 0.00 0.00 0.00 61 1010.2
20260509205823 25 291 6.4 14.5 0.00 0.00 0.00 61 1010.2
20260509205714 25 262 8.0 14.5 0.00 0.00 0.00 61 1010.2
20260509205622 25 283 8.0 16.1 0.00 0.00 0.00 61 1010.2
20260509205548 25 306 8.0 16.1 0.00 0.00 0.00 61 1010.1
20260509205414 25 282 6.4 16.1 0.00 0.00 0.00 61 1010.2
20260509205322 25 313 6.4 16.1 0.00 0.00 0.00 61 1010.2
20260509205229 25 302 6.4 16.1 0.00 0.00 0.00 61 1010.2
20260509205116 25 286 8.0 16.1 0.00 0.00 0.00 61 1010.2
20260509205051 25 280 9.7 16.1 0.00 0.00 0.00 61 1010.2
20260509204824 25 293 8.0 16.1 0.00 0.00 0.00 62 1010.3
20260509204712 25 289 4.8 11.3 0.00 0.00 0.00 62 1010.3
20260509204618 25 240 3.2 11.3 0.00 0.00 0.00 62 1010.3
20260509204530 25 254 4.8 11.3 0.00 0.00 0.00 62 1010.3
20260509204417 25 288 4.8 12.9 0.00 0.00 0.00 62 1010.3
20260509204324 25 319 4.8 12.9 0.00 0.00 0.00 62 1010.3
20260509204213 25 269 4.8 12.9 0.00 0.00 0.00 62 1010.4
20260509204140 25 263 4.8 12.9 0.00 0.00 0.00 62 1010.4
20260509204027 25 290 4.8 12.9 0.00 0.00 0.00 62 1010.4
20260509203920 25 284 3.2 12.9 0.00 0.00 0.00 62 1010.4
20260509203828 25 243 3.2 12.9 0.00 0.00 0.00 62 1010.4
20260509203736 25 321 4.8 12.9 0.00 0.00 0.00 62 1010.4
20260509203623 24 290 6.4 12.9 0.00 0.00 0.00 62 1010.4
20260509203554 24 323 8.0 12.9 0.00 0.00 0.00 63 1010.4
20260509203311 24 264 6.4 12.9 0.00 0.00 0.00 63 1010.4
20260509203219 24 288 3.2 12.9 0.00 0.00 0.00 63 1010.4
20260509203126 24 242 3.2 12.9 0.00 0.00 0.00 62 1010.4
20260509203013 24 360 3.2 12.9 0.00 0.00 0.00 64 1010.4
20260509202922 24 5 4.8 12.9 0.00 0.00 0.00 63 1010.4
20260509202812 24 253 4.8 12.9 0.00 0.00 0.00 63 1010.4
20260509202719 24 263 4.8 12.9 0.00 0.00 0.00 64 1010.4
20260509202625 24 239 4.8 8.0 0.00 0.00 0.00 63 1010.4
20260509202512 24 285 4.8 12.9 0.00 0.00 0.00 63 1010.5
20260509202418 24 277 4.8 12.9 0.00 0.00 0.00 64 1010.5
20260509202327 24 298 4.8 12.9 0.00 0.00 0.00 64 1010.5
20260509202218 24 291 4.8 12.9 0.00 0.00 0.00 65 1010.5
20260509202125 24 306 4.8 12.9 0.00 0.00 0.00 63 1010.5
20260509202056 24 295 4.8 12.9 0.00 0.00 0.00 63 1010.5
20260509201831 24 316 6.4 12.9 0.00 0.00 0.00 63 1010.7
20260509201721 24 305 4.8 12.9 0.00 0.00 0.00 65 1010.5
20260509201629 24 215 3.2 12.9 0.00 0.00 0.00 64 1010.6
20260509201517 24 220 1.6 12.9 0.00 0.00 0.00 65 1010.6
20260509201425 24 238 3.2 12.9 0.00 0.00 0.00 65 1010.6
20260509201333 24 270 3.2 12.9 0.00 0.00 0.00 65 1010.5
20260509201220 24 261 3.2 14.5 0.00 0.00 0.00 65 1010.5
20260509201131 24 310 3.2 17.7 0.00 0.00 0.00 65 1010.5
20260509201018 24 30 6.4 17.7 0.00 0.00 0.00 65 1010.6
20260509200925 24 253 8.0 17.7 0.00 0.00 0.00 64 1010.6
20260509200852 24 268 6.4 17.7 0.00 0.00 0.00 64 1010.5
20260509200719 24 254 8.0 17.7 0.00 0.00 0.00 64 1010.6
20260509200626 24 272 9.7 17.7 0.00 0.00 0.00 64 1010.6
20260509200601 24 303 11.3 17.7 0.00 0.00 0.00 64 1010.5
20260509200314 24 294 9.7 17.7 0.00 0.00 0.00 64 1010.5
20260509200220 24 296 9.7 17.7 0.00 0.00 0.00 63 1010.5
20260509200127 24 301 8.0 16.1 0.00 0.00 0.00 63 1010.5
20260509200020 24 299 9.7 16.1 0.00 0.00 0.00 63 1010.5
20260509195927 24 304 9.7 16.1 0.00 0.00 0.00 64 1010.5
20260509195815 24 265 9.7 16.1 0.00 0.00 0.00 64 1010.5
20260509195742 24 274 8.0 14.5 0.00 0.00 0.00 64 1010.6
20260509195629 24 281 9.7 14.5 0.00 0.00 0.00 64 1010.6
20260509195517 24 291 9.7 14.5 0.00 0.00 0.00 64 1010.5
20260509195430 24 281 8.0 14.5 0.00 0.00 0.00 64 1010.5
20260509195316 24 294 6.4 14.5 0.00 0.00 0.00 64 1010.5
20260509195223 24 311 8.0 14.5 0.00 0.00 0.00 64 1010.5
20260509195131 24 274 8.0 14.5 0.00 0.00 0.00 64 1010.6
20260509195101 24 279 8.0 17.7 0.00 0.00 0.00 64 1010.6
20260509194819 24 288 6.4 17.7 0.00 0.00 0.00 63 1010.6
20260509194726 24 302 6.4 17.7 0.00 0.00 0.00 63 1010.6
20260509194652 24 290 6.4 17.7 0.00 0.00 0.00 63 1010.5
20260509194540 24 267 9.7 17.7 0.00 0.00 0.00 63 1010.5
20260509194426 24 273 11.3 17.7 0.00 0.00 0.00 63 1010.5
20260509194314 24 281 11.3 17.7 0.00 0.00 0.00 63 1010.4
20260509194227 24 273 11.3 17.7 0.00 0.00 0.00 63 1010.4
20260509194115 24 269 9.7 16.1 0.00 0.00 0.00 64 1010.5
20260509194021 24 330 8.0 16.1 0.00 0.00 0.00 64 1010.5
20260509193929 24 287 8.0 14.5 0.00 0.00 0.00 65 1010.5
20260509193817 24 313 6.4 14.5 0.00 0.00 0.00 65 1010.6
20260509193745 24 326 6.4 14.5 0.00 0.00 0.00 64 1010.6
20260509193614 24 290 6.4 11.3 0.00 0.00 0.00 66 1010.7
20260509193546 24 249 6.4 9.7 0.00 0.00 0.00 65 1010.7
20260509193339 24 277 4.8 9.7 0.00 0.00 0.00 65 1010.4
20260509193225 24 296 3.2 12.9 0.00 0.00 0.00 65 1010.4
20260509193114 24 275 4.8 12.9 0.00 0.00 0.00 65 1010.4
20260509193041 24 283 4.8 14.5 0.00 0.00 0.00 65 1010.4
20260509192948 24 273 4.8 14.5 0.00 0.00 0.00 64 1010.4
20260509192814 24 5 6.4 14.5 0.00 0.00 0.00 64 1010.4
20260509192722 24 319 6.4 14.5 0.00 0.00 0.00 64 1010.4
20260509192629 24 277 4.8 14.5 0.00 0.00 0.00 65 1010.6
20260509192516 24 317 6.4 14.5 0.00 0.00 0.00 64 1010.6
20260509192427 24 348 8.0 14.5 0.00 0.00 0.00 64 1010.6
20260509192314 24 297 8.0 14.5 0.00 0.00 0.00 65 1010.5
20260509192223 24 237 6.4 14.5 0.00 0.00 0.00 65 1010.5
20260509192131 24 224 4.8 14.5 0.00 0.00 0.00 67 1010.6
20260509192105 24 194 3.2 14.5 0.00 0.00 0.00 64 1010.6
20260509191819 24 360 3.2 17.7 0.00 0.00 0.00 63 1010.8
20260509191727 24 34 4.8 17.7 0.00 0.00 0.00 63 1010.8
20260509191614 24 181 8.0 17.7 0.00 0.00 0.00 64 1010.9
20260509191523 24 219 8.0 17.7 0.00 0.00 0.00 64 1010.9
20260509191450 24 215 4.8 17.7 0.00 0.00 0.00 64 1010.8
20260509191322 24 313 6.4 17.7 0.00 0.00 0.00 65 1010.8
20260509191229 24 292 6.4 17.7 0.00 0.00 0.00 64 1010.9
20260509191117 24 244 8.0 17.7 0.00 0.00 0.00 65 1010.9
20260509191046 24 258 6.4 17.7 0.00 0.00 0.00 65 1010.9
20260509190952 24 262 8.0 17.7 0.00 0.00 0.00 65 1010.9
20260509190819 24 248 8.0 16.1 0.00 0.00 0.00 65 1010.8
20260509190730 24 239 9.7 16.1 0.00 0.00 0.00 66 1010.8
20260509190617 24 241 11.3 16.1 0.00 0.00 0.00 66 1010.9
20260509190547 24 302 11.3 16.1 0.00 0.00 0.00 66 1010.9
20260509190340 24 329 9.7 16.1 0.00 0.00 0.00 66 1010.7
20260509190246 23 329 8.0 14.5 0.00 0.00 0.00 66 1010.7
20260509190117 23 264 8.0 14.5 0.00 0.00 0.00 66 1010.8
20260509190024 23 343 8.0 14.5 0.00 0.00 0.00 66 1010.8
20260509185932 23 309 6.4 12.9 0.00 0.00 0.00 67 1010.8
20260509185819 23 277 3.2 14.5 0.00 0.00 0.00 67 1010.9
20260509185727 23 167 1.6 14.5 0.00 0.00 0.00 67 1010.9
20260509185634 23 49 3.2 14.5 0.00 0.00 0.00 67 1010.8
20260509185525 23 286 3.2 14.5 0.00 0.00 0.00 67 1010.8
20260509185452 23 270 3.2 14.5 0.00 0.00 0.00 67 1010.8
20260509185320 23 336 4.8 14.5 0.00 0.00 0.00 67 1010.9
20260509185227 23 287 6.4 14.5 0.00 0.00 0.00 66 1010.9
20260509185136 23 252 6.4 14.5 0.00 0.00 0.00 67 1010.9
20260509185049 23 260 6.4 17.7 0.00 0.00 0.00 67 1010.9
20260509184821 23 306 3.2 17.7 0.00 0.00 0.00 67 1011.0
20260509184728 23 218 3.2 17.7 0.00 0.00 0.00 67 1010.9
20260509184615 23 220 3.2 17.7 0.00 0.00 0.00 68 1011.0
20260509184523 23 243 6.4 17.7 0.00 0.00 0.00 67 1011.0
20260509184431 23 291 8.0 17.7 0.00 0.00 0.00 66 1011.0
20260509184342 23 293 8.0 17.7 0.00 0.00 0.00 67 1011.1
20260509184249 23 293 8.0 17.7 0.00 0.00 0.00 68 1011.1
20260509184115 23 259 6.4 14.5 0.00 0.00 0.00 68 1011.1
20260509184022 23 248 6.4 14.5 0.00 0.00 0.00 67 1011.1
20260509183929 23 253 6.4 14.5 0.00 0.00 0.00 67 1011.1
20260509183816 23 248 6.4 14.5 0.00 0.00 0.00 67 1011.1
20260509183728 23 281 6.4 14.5 0.00 0.00 0.00 68 1011.1
20260509183654 23 330 6.4 14.5 0.00 0.00 0.00 69 1011.1
20260509183604 23 284 8.0 14.5 0.00 0.00 0.00 69 1011.2
20260509183317 23 288 9.7 14.5 0.00 0.00 0.00 68 1011.2
20260509183224 23 345 8.0 14.5 0.00 0.00 0.00 69 1011.2
20260509183115 23 246 6.4 14.5 0.00 0.00 0.00 70 1011.1
20260509183022 23 206 4.8 12.9 0.00 0.00 0.00 68 1011.1
20260509182930 23 228 4.8 12.9 0.00 0.00 0.00 67 1011.2
20260509182818 23 202 4.8 12.9 0.00 0.00 0.00 67 1011.3
20260509182747 23 197 6.4 14.5 0.00 0.00 0.00 67 1011.3
20260509182633 23 238 4.8 14.5 0.00 0.00 0.00 67 1011.3
20260509182539 23 275 3.2 14.5 0.00 0.00 0.00 67 1011.3
20260509182430 23 276 4.8 14.5 0.00 0.00 0.00 67 1011.3
20260509182318 23 347 4.8 14.5 0.00 0.00 0.00 67 1011.4
20260509182226 23 215 6.4 14.5 0.00 0.00 0.00 67 1011.4
20260509182113 23 246 8.0 14.5 0.00 0.00 0.00 67 1011.3
20260509182047 23 288 8.0 14.5 0.00 0.00 0.00 67 1011.3
20260509181822 23 339 6.4 14.5 0.00 0.00 0.00 68 1011.3
20260509181728 23 279 6.4 17.7 0.00 0.00 0.00 68 1011.4
20260509181617 23 318 4.8 17.7 0.00 0.00 0.00 68 1011.3
20260509181525 23 242 4.8 17.7 0.00 0.00 0.00 68 1011.3
20260509181417 23 319 3.2 17.7 0.00 0.00 0.00 69 1011.3
20260509181325 23 302 3.2 17.7 0.00 0.00 0.00 69 1011.3
20260509181213 23 319 3.2 17.7 0.00 0.00 0.00 69 1011.2
20260509181120 22 319 4.8 17.7 0.00 0.00 0.00 70 1011.3
20260509181027 22 329 6.4 17.7 0.00 0.00 0.00 69 1011.3
20260509180913 22 342 9.7 17.7 0.00 0.00 0.00 68 1011.2
20260509180845 22 287 11.3 17.7 0.00 0.00 0.00 68 1011.2
20260509180752 22 282 8.0 17.7 0.00 0.00 0.00 68 1011.3
20260509180618 22 330 4.8 16.1 0.00 0.00 0.00 68 1011.3
20260509180548 22 277 3.2 16.1 0.00 0.00 0.00 69 1011.3
20260509180322 22 213 4.8 16.1 0.00 0.00 0.00 68 1011.2
20260509180234 22 200 6.4 16.1 0.00 0.00 0.00 69 1011.1
20260509180120 22 260 8.0 16.1 0.00 0.00 0.00 69 1011.1
20260509180027 22 276 8.0 16.1 0.00 0.00 0.00 70 1011.1
20260509175934 22 245 4.8 16.1 0.00 0.00 0.00 69 1011.1
20260509175821 22 267 3.2 14.5 0.00 0.00 0.00 69 1011.1
20260509175727 22 287 4.8 14.5 0.00 0.00 0.00 69 1011.1
20260509175634 22 308 6.4 14.5 0.00 0.00 0.00 69 1011.2
20260509175524 22 331 8.0 14.5 0.00 0.00 0.00 68 1011.2
20260509175452 22 306 8.0 14.5 0.00 0.00 0.00 69 1011.1
20260509175338 22 290 8.0 14.5 0.00 0.00 0.00 69 1011.1
20260509175226 22 307 6.4 12.9 0.00 0.00 0.00 70 1011.1
20260509175132 22 262 3.2 12.9 0.00 0.00 0.00 70 1011.1
20260509175105 22 277 3.2 14.5 0.00 0.00 0.00 70 1011.1
20260509174818 22 275 4.8 14.5 0.00 0.00 0.00 70 1011.1
20260509174726 22 205 4.8 14.5 0.00 0.00 0.00 69 1011.1
20260509174634 22 192 4.8 14.5 0.00 0.00 0.00 70 1011.2
20260509174520 22 252 4.8 14.5 0.00 0.00 0.00 68 1011.2
20260509174428 22 192 6.4 16.1 0.00 0.00 0.00 68 1011.2
20260509174319 22 227 8.0 16.1 0.00 0.00 0.00 68 1011.2
20260509174226 22 251 8.0 16.1 0.00 0.00 0.00 69 1011.2
20260509174113 22 253 6.4 16.1 0.00 0.00 0.00 69 1011.1
20260509174021 22 272 6.4 16.1 0.00 0.00 0.00 70 1011.1
20260509173928 22 232 6.4 16.1 0.00 0.00 0.00 69 1011.1
20260509173819 22 334 8.0 16.1 0.00 0.00 0.00 69 1011.1
20260509173728 22 323 9.7 16.1 0.00 0.00 0.00 69 1011.1
20260509173635 22 298 8.0 16.1 0.00 0.00 0.00 69 1010.9
20260509173546 22 308 6.4 14.5 0.00 0.00 0.00 70 1010.9
20260509173320 22 275 4.8 11.3 0.00 0.00 0.00 71 1010.9
20260509173212 22 292 3.2 9.7 0.00 0.00 0.00 71 1010.9
20260509173118 22 273 3.2 12.9 0.00 0.00 0.00 71 1010.9
20260509173026 22 202 3.2 12.9 0.00 0.00 0.00 70 1010.9
20260509172934 22 259 1.6 14.5 0.00 0.00 0.00 71 1011.0
20260509172821 22 296 1.6 14.5 0.00 0.00 0.00 71 1010.9
20260509172748 22 163 3.2 14.5 0.00 0.00 0.00 70 1010.9
20260509172618 22 263 3.2 14.5 0.00 0.00 0.00 71 1011.0
20260509172525 21 302 4.8 14.5 0.00 0.00 0.00 71 1011.0
20260509172414 21 161 8.0 14.5 0.00 0.00 0.00 71 1011.1
20260509172320 21 173 8.0 14.5 0.00 0.00 0.00 70 1011.1
20260509172247 21 187 8.0 14.5 0.00 0.00 0.00 70 1011.1
20260509172113 21 196 4.8 12.9 0.00 0.00 0.00 71 1011.2
20260509172048 21 173 6.4 12.9 0.00 0.00 0.00 72 1011.2
20260509171822 21 186 6.4 12.9 0.00 0.00 0.00 72 1011.3
20260509171748 21 274 6.4 12.9 0.00 0.00 0.00 71 1011.3
20260509171614 21 248 6.4 16.1 0.00 0.00 0.00 72 1011.3
20260509171521 21 217 4.8 16.1 0.00 0.00 0.00 72 1011.3
20260509171432 21 169 6.4 16.1 0.00 0.00 0.00 72 1011.3
20260509171316 21 192 8.0 16.1 0.00 0.00 0.00 73 1011.3
20260509171223 21 304 8.0 16.1 0.00 0.00 0.00 73 1011.3
20260509171131 21 260 8.0 19.3 0.00 0.00 0.00 73 1011.4
20260509171019 21 240 9.7 19.3 0.00 0.00 0.00 74 1011.3
20260509170926 21 275 9.7 19.3 0.00 0.00 0.00 74 1011.3
20260509170818 21 241 8.0 19.3 0.00 0.00 0.00 74 1011.4
20260509170726 21 217 6.4 19.3 0.00 0.00 0.00 75 1011.4
20260509170633 21 301 8.0 19.3 0.00 0.00 0.00 76 1011.3
20260509170604 21 242 9.7 19.3 0.00 0.00 0.00 75 1011.3
20260509170341 21 228 9.7 19.3 0.00 0.00 0.00 74 1011.5
20260509170246 21 204 8.0 17.7 0.00 0.00 0.00 74 1011.5
20260509170112 21 170 8.0 17.7 0.00 0.00 0.00 74 1011.5
20260509170020 21 180 8.0 17.7 0.00 0.00 0.00 74 1011.6
20260509165928 21 187 9.7 17.7 0.00 0.00 0.00 74 1011.6
20260509165816 21 242 11.3 17.7 0.00 0.00 0.00 74 1011.6
20260509165729 21 202 9.7 17.7 0.00 0.00 0.00 74 1011.6
20260509165615 21 228 6.4 19.3 0.00 0.00 0.00 74 1011.6
20260509165524 21 199 4.8 19.3 0.00 0.00 0.00 74 1011.6
20260509165451 21 224 4.8 19.3 0.00 0.00 0.00 76 1011.6
20260509165318 20 178 8.0 19.3 0.00 0.00 0.00 76 1011.7
20260509165246 20 183 8.0 19.3 0.00 0.00 0.00 75 1011.7
20260509165132 20 183 9.7 19.3 0.00 0.00 0.00 74 1011.7
20260509165046 20 160 9.7 19.3 0.00 0.00 0.00 74 1011.7
20260509164840 20 164 11.3 19.3 0.00 0.00 0.00 75 1011.8
20260509164727 20 180 11.3 19.3 0.00 0.00 0.00 75 1011.8
20260509164615 20 175 9.7 19.3 0.00 0.00 0.00 76 1011.7
20260509164522 20 205 6.4 19.3 0.00 0.00 0.00 76 1011.7
20260509164412 20 180 8.0 19.3 0.00 0.00 0.00 75 1011.7
20260509164320 20 169 8.0 19.3 0.00 0.00 0.00 75 1011.7
20260509164227 20 142 11.3 19.3 0.00 0.00 0.00 75 1011.7
20260509164116 20 212 9.7 19.3 0.00 0.00 0.00 75 1011.8
20260509164023 20 184 9.7 17.7 0.00 0.00 0.00 75 1011.8
20260509163915 20 183 9.7 17.7 0.00 0.00 0.00 75 1011.8
20260509163823 20 189 8.0 14.5 0.00 0.00 0.00 76 1011.8
20260509163730 20 217 6.4 14.5 0.00 0.00 0.00 75 1011.8
20260509163617 20 205 6.4 12.9 0.00 0.00 0.00 77 1011.8
20260509163552 20 148 6.4 12.9 0.00 0.00 0.00 77 1011.8
20260509163346 20 176 6.4 16.1 0.00 0.00 0.00 77 1011.8
20260509163211 20 240 4.8 17.7 0.00 0.00 0.00 77 1011.8
20260509163119 20 288 4.8 17.7 0.00 0.00 0.00 77 1011.8
20260509163048 20 283 4.8 17.7 0.00 0.00 0.00 77 1011.8
20260509162915 20 186 3.2 17.7 0.00 0.00 0.00 77 1011.8
20260509162843 20 304 3.2 17.7 0.00 0.00 0.00 76 1011.8
20260509162712 20 232 4.8 17.7 0.00 0.00 0.00 77 1011.9
20260509162641 20 192 8.0 17.7 0.00 0.00 0.00 77 1011.7
20260509162548 20 200 8.0 17.7 0.00 0.00 0.00 78 1011.7
20260509162415 20 167 9.7 17.7 0.00 0.00 0.00 78 1011.7
20260509162343 20 232 9.7 19.3 0.00 0.00 0.00 78 1011.7
20260509162230 20 165 8.0 14.5 0.00 0.00 0.00 78 1011.8
20260509162117 20 180 8.0 14.5 0.00 0.00 0.00 78 1011.8
20260509162050 20 192 8.0 14.5 0.00 0.00 0.00 78 1011.8
20260509161824 19 169 9.7 14.5 0.00 0.00 0.00 78 1011.7
20260509161751 19 226 9.7 14.5 0.00 0.00 0.00 78 1011.7
20260509161618 19 197 6.4 16.1 0.00 0.00 0.00 78 1011.7
20260509161525 19 205 4.8 16.1 0.00 0.00 0.00 78 1011.7
20260509161437 19 176 4.8 16.1 0.00 0.00 0.00 78 1011.7
20260509161323 19 189 4.8 16.1 0.00 0.00 0.00 79 1011.7
20260509161230 19 199 4.8 16.1 0.00 0.00 0.00 80 1011.8
20260509161119 19 225 4.8 16.1 0.00 0.00 0.00 80 1011.7
20260509161026 19 236 4.8 16.1 0.00 0.00 0.00 80 1011.7
20260509160917 18 261 6.4 16.1 0.00 0.00 0.00 80 1011.8
20260509160845 18 170 8.0 16.1 0.00 0.00 0.00 80 1011.8
20260509160731 18 160 8.0 16.1 0.00 0.00 0.00 80 1011.8
20260509160640 18 167 6.4 16.1 0.00 0.00 0.00 81 1011.8
20260509160610 18 169 6.4 12.9 0.00 0.00 0.00 81 1011.7
20260509160343 18 198 6.4 12.9 0.00 0.00 0.00 81 1011.8
20260509160213 18 144 8.0 14.5 0.00 0.00 0.00 81 1011.8
20260509160142 18 194 9.7 14.5 0.00 0.00 0.00 81 1011.8
20260509160028 18 214 8.0 14.5 0.00 0.00 0.00 81 1011.8
20260509155915 18 146 6.4 14.5 0.00 0.00 0.00 81 1011.8
20260509155823 18 175 6.4 14.5 0.00 0.00 0.00 81 1011.8
20260509155730 18 193 6.4 14.5 0.00 0.00 0.00 80 1011.8
20260509155622 18 168 9.7 14.5 0.00 0.00 0.00 80 1011.8
20260509155529 18 214 9.7 14.5 0.00 0.00 0.00 80 1011.7
20260509155417 18 200 8.0 14.5 0.00 0.00 0.00 80 1011.8
20260509155325 18 193 6.4 14.5 0.00 0.00 0.00 80 1011.8
20260509155213 18 198 8.0 14.5 0.00 0.00 0.00 81 1011.6
20260509155125 18 203 8.0 11.3 0.00 0.00 0.00 81 1011.6
20260509155056 18 209 6.4 11.3 0.00 0.00 0.00 80 1011.7
20260509154829 18 223 6.4 14.5 0.00 0.00 0.00 81 1011.6
20260509154715 18 234 4.8 14.5 0.00 0.00 0.00 81 1011.7
20260509154624 18 200 3.2 14.5 0.00 0.00 0.00 81 1011.7
20260509154516 18 213 3.2 14.5 0.00 0.00 0.00 82 1011.7
20260509154423 18 235 3.2 14.5 0.00 0.00 0.00 82 1011.7
20260509154351 18 246 3.2 14.5 0.00 0.00 0.00 82 1011.7
20260509154217 18 187 6.4 14.5 0.00 0.00 0.00 82 1011.7
20260509154124 18 219 8.0 14.5 0.00 0.00 0.00 81 1011.7
20260509154015 18 213 6.4 14.5 0.00 0.00 0.00 81 1011.8
20260509153943 18 166 3.2 12.9 0.00 0.00 0.00 81 1011.8
20260509153829 18 234 4.8 12.9 0.00 0.00 0.00 82 1011.8
20260509153717 18 214 4.8 12.9 0.00 0.00 0.00 82 1011.8
20260509153623 18 193 6.4 12.9 0.00 0.00 0.00 82 1011.8
20260509153557 18 206 6.4 12.9 0.00 0.00 0.00 82 1011.7
20260509153351 18 244 8.0 12.9 0.00 0.00 0.00 81 1011.7
20260509153217 18 219 9.7 12.9 0.00 0.00 0.00 81 1011.8
20260509153124 18 205 9.7 12.9 0.00 0.00 0.00 81 1011.8
20260509153052 18 206 9.7 12.9 0.00 0.00 0.00 81 1011.9
20260509152918 18 221 6.4 12.9 0.00 0.00 0.00 82 1011.8
20260509152845 18 168 6.4 12.9 0.00 0.00 0.00 81 1011.8
20260509152715 18 160 6.4 11.3 0.00 0.00 0.00 82 1011.9
20260509152643 18 171 4.8 11.3 0.00 0.00 0.00 82 1011.9
20260509152530 17 289 6.4 11.3 0.00 0.00 0.00 83 1011.9
20260509152418 17 188 6.4 11.3 0.00 0.00 0.00 83 1011.8
20260509152324 17 202 6.4 12.9 0.00 0.00 0.00 82 1011.8
20260509152213 17 177 6.4 12.9 0.00 0.00 0.00 83 1011.8
20260509152144 17 171 6.4 12.9 0.00 0.00 0.00 83 1011.8
20260509152053 17 158 6.4 12.9 0.00 0.00 0.00 83 1011.7
20260509151827 17 110 6.4 12.9 0.00 0.00 0.00 83 1012.0
20260509151734 17 165 6.4 12.9 0.00 0.00 0.00 83 1012.0
20260509151620 17 218 8.0 12.9 0.00 0.00 0.00 83 1012.0
20260509151548 17 191 9.7 12.9 0.00 0.00 0.00 83 1012.0
20260509151420 17 192 8.0 12.9 0.00 0.00 0.00 83 1012.0
20260509151327 17 181 6.4 14.5 0.00 0.00 0.00 83 1012.0
20260509151214 17 159 4.8 14.5 0.00 0.00 0.00 83 1011.9
20260509151142 17 172 3.2 14.5 0.00 0.00 0.00 83 1011.9
20260509151028 17 188 3.2 14.5 0.00 0.00 0.00 84 1012.0
20260509150919 17 173 4.8 14.5 0.00 0.00 0.00 83 1012.0
20260509150826 17 159 6.4 14.5 0.00 0.00 0.00 83 1012.0
20260509150753 17 159 8.0 14.5 0.00 0.00 0.00 84 1012.1
20260509150700 17 172 8.0 14.5 0.00 0.00 0.00 84 1011.9
20260509150549 17 183 8.0 12.9 0.00 0.00 0.00 85 1012.0
20260509150321 17 172 6.4 12.9 0.00 0.00 0.00 85 1011.9
20260509150213 17 201 4.8 12.9 0.00 0.00 0.00 86 1011.9
20260509150140 17 115 3.2 12.9 0.00 0.00 0.00 87 1011.9
20260509150028 17 117 3.2 14.5 0.00 0.00 0.00 86 1011.9
20260509145915 17 192 6.4 14.5 0.00 0.00 0.00 86 1012.0
20260509145821 16 178 6.4 14.5 0.00 0.00 0.00 86 1012.0
20260509145750 16 171 4.8 14.5 0.00 0.00 0.00 86 1011.9
20260509145620 16 219 6.4 14.5 0.00 0.00 0.00 86 1011.9
20260509145527 16 192 8.0 14.5 0.00 0.00 0.00 86 1011.9
20260509145415 16 186 8.0 14.5 0.00 0.00 0.00 86 1011.9
20260509145341 16 200 8.0 14.5 0.00 0.00 0.00 86 1012.0
20260509145229 16 190 6.4 14.5 0.00 0.00 0.00 86 1012.0
20260509145136 16 239 4.8 16.1 0.00 0.00 0.00 86 1011.9
20260509145051 16 207 4.8 16.1 0.00 0.00 0.00 86 1011.9
20260509144825 16 173 8.0 16.1 0.00 0.00 0.00 86 1012.0
20260509144713 16 225 9.7 16.1 0.00 0.00 0.00 86 1012.0
20260509144619 16 191 9.7 16.1 0.00 0.00 0.00 86 1012.0
20260509144527 16 202 9.7 16.1 0.00 0.00 0.00 86 1012.0
20260509144439 16 195 8.0 12.9 0.00 0.00 0.00 87 1012.0
20260509144327 16 195 6.4 12.9 0.00 0.00 0.00 87 1012.0
20260509144255 16 199 4.8 12.9 0.00 0.00 0.00 86 1011.9
20260509144113 16 223 4.8 12.9 0.00 0.00 0.00 87 1012.0
20260509144021 16 180 4.8 12.9 0.00 0.00 0.00 87 1011.9
20260509143947 16 215 6.4 12.9 0.00 0.00 0.00 86 1011.9
20260509143814 16 146 6.4 14.5 0.00 0.00 0.00 86 1012.0
20260509143725 16 202 6.4 14.5 0.00 0.00 0.00 86 1012.0
20260509143632 16 237 8.0 14.5 0.00 0.00 0.00 86 1011.9
20260509143602 16 217 8.0 14.5 0.00 0.00 0.00 86 1011.9
20260509143315 16 238 8.0 14.5 0.00 0.00 0.00 88 1012.0
20260509143243 16 217 6.4 14.5 0.00 0.00 0.00 87 1012.0
20260509143113 16 180 8.0 14.5 0.00 0.00 0.00 87 1011.9
20260509143021 16 163 8.0 14.5 0.00 0.00 0.00 88 1011.9
20260509142929 16 173 6.4 14.5 0.00 0.00 0.00 87 1011.9
20260509142817 16 150 4.8 14.5 0.00 0.00 0.00 87 1011.9
20260509142725 16 155 6.4 14.5 0.00 0.00 0.00 87 1011.9
20260509142615 16 192 6.4 14.5 0.00 0.00 0.00 87 1011.9
20260509142523 16 188 9.7 14.5 0.00 0.00 0.00 87 1011.9
20260509142430 16 188 9.7 14.5 0.00 0.00 0.00 87 1011.9
20260509142317 16 181 8.0 14.5 0.00 0.00 0.00 87 1011.9
20260509142223 16 201 9.7 14.5 0.00 0.00 0.00 87 1011.9
20260509142149 16 217 8.0 14.5 0.00 0.00 0.00 87 1011.9
20260509142104 16 214 8.0 14.5 0.00 0.00 0.00 88 1011.9
20260509141818 16 212 8.0 12.9 0.00 0.00 0.00 88 1012.0
20260509141725 16 216 8.0 12.9 0.00 0.00 0.00 88 1012.0
20260509141612 16 175 8.0 12.9 0.00 0.00 0.00 88 1012.0
20260509141519 16 186 8.0 12.9 0.00 0.00 0.00 88 1012.0
20260509141430 16 189 6.4 12.9 0.00 0.00 0.00 88 1012.0
20260509141317 16 193 4.8 12.9 0.00 0.00 0.00 88 1012.0
20260509141224 16 185 6.4 12.9 0.00 0.00 0.00 88 1012.0
20260509141130 16 186 8.0 12.9 0.00 0.00 0.00 88 1011.9
20260509141038 16 187 8.0 14.5 0.00 0.00 0.00 88 1011.9
20260509140925 16 178 6.4 9.7 0.00 0.00 0.00 88 1011.9
20260509140836 16 197 3.2 9.7 0.00 0.00 0.00 89 1012.0
20260509140722 16 150 1.6 9.7 0.00 0.00 0.00 88 1012.0
20260509140629 16 182 3.2 11.3 0.00 0.00 0.00 88 1011.9
20260509140600 16 192 3.2 11.3 0.00 0.00 0.00 88 1011.9
20260509140314 16 176 6.4 11.3 0.00 0.00 0.00 89 1011.7
20260509140227 16 176 4.8 11.3 0.00 0.00 0.00 89 1011.7
20260509140114 16 168 4.8 11.3 0.00 0.00 0.00 89 1011.7
20260509140022 16 182 4.8 11.3 0.00 0.00 0.00 89 1011.7
20260509135930 15 169 4.8 11.3 0.00 0.00 0.00 89 1011.7
20260509135817 15 195 3.2 11.3 0.00 0.00 0.00 89 1011.6
20260509135728 15 203 1.6 9.7 0.00 0.00 0.00 89 1011.6
20260509135615 15 215 1.6 9.7 0.00 0.00 0.00 89 1011.5
20260509135544 15 159 3.2 9.7 0.00 0.00 0.00 89 1011.5
20260509135430 15 233 3.2 9.7 0.00 0.00 0.00 89 1011.4
20260509135338 15 219 4.8 9.7 0.00 0.00 0.00 89 1011.3
20260509135224 15 207 4.8 9.7 0.00 0.00 0.00 89 1011.3
20260509135133 15 206 4.8 9.7 0.00 0.00 0.00 89 1011.3
20260509135046 15 166 3.2 8.0 0.00 0.00 0.00 89 1011.3
20260509134821 15 150 3.2 6.4 0.00 0.00 0.00 90 1011.3
20260509134728 15 211 4.8 6.4 0.00 0.00 0.00 90 1011.3
20260509134614 15 183 3.2 6.4 0.00 0.00 0.00 90 1011.1
20260509134527 15 183 1.6 6.4 0.00 0.00 0.00 90 1011.1
20260509134414 15 226 0.0 6.4 0.00 0.00 0.00 90 1011.2
20260509134323 15 200 1.6 6.4 0.00 0.00 0.00 90 1011.2
20260509134250 15 200 1.6 6.4 0.00 0.00 0.00 90 1011.1
20260509134117 15 200 3.2 6.4 0.00 0.00 0.00 90 1011.1
20260509134024 15 252 1.6 8.0 0.00 0.00 0.00 90 1011.1
20260509133916 15 192 3.2 8.0 0.00 0.00 0.00 90 1011.2
20260509133843 15 220 3.2 8.0 0.00 0.00 0.00 90 1011.2
20260509133730 15 227 3.2 8.0 0.00 0.00 0.00 90 1011.1
20260509133638 15 221 3.2 8.0 0.00 0.00 0.00 90 1011.2
20260509133547 15 283 3.2 8.0 0.00 0.00 0.00 90 1011.2
20260509133325 15 251 4.8 8.0 0.00 0.00 0.00 90 1011.0
20260509133212 15 253 4.8 8.0 0.00 0.00 0.00 90 1011.0
20260509133119 15 257 4.8 8.0 0.00 0.00 0.00 90 1011.1
20260509133028 15 184 4.8 8.0 0.00 0.00 0.00 90 1011.1
20260509132936 15 232 3.2 8.0 0.00 0.00 0.00 91 1011.1
20260509132822 15 254 3.2 9.7 0.00 0.00 0.00 91 1011.1
20260509132714 15 244 4.8 9.7 0.00 0.00 0.00 91 1011.1
20260509132621 15 259 4.8 9.7 0.00 0.00 0.00 91 1011.1
20260509132548 15 234 4.8 9.7 0.00 0.00 0.00 91 1011.2
20260509132414 15 161 4.8 9.7 0.00 0.00 0.00 91 1011.1
20260509132322 15 194 4.8 9.7 0.00 0.00 0.00 91 1011.1
20260509132229 15 230 4.8 11.3 0.00 0.00 0.00 91 1011.2
20260509132141 15 238 4.8 11.3 0.00 0.00 0.00 91 1011.1
20260509132052 15 249 3.2 11.3 0.00 0.00 0.00 91 1011.1
20260509131826 15 243 3.2 11.3 0.00 0.00 0.00 91 1011.1
20260509131713 15 205 3.2 11.3 0.00 0.00 0.00 91 1011.1
20260509131620 15 261 4.8 11.3 0.00 0.00 0.00 91 1011.1
20260509131551 15 226 4.8 11.3 0.00 0.00 0.00 91 1011.1
20260509131418 15 248 6.4 11.3 0.00 0.00 0.00 91 1011.2
20260509131325 15 234 6.4 11.3 0.00 0.00 0.00 91 1011.2
20260509131212 15 198 4.8 11.3 0.00 0.00 0.00 91 1011.1
20260509131120 15 204 3.2 11.3 0.00 0.00 0.00 91 1011.1
20260509131048 15 185 1.6 11.3 0.00 0.00 0.00 91 1011.1
20260509130918 15 242 4.8 11.3 0.00 0.00 0.00 91 1011.2
20260509130826 15 191 6.4 11.3 0.00 0.00 0.00 91 1011.2
20260509130714 15 207 4.8 9.7 0.00 0.00 0.00 91 1011.3
20260509130621 15 248 3.2 12.9 0.00 0.00 0.00 91 1011.3
20260509130557 15 213 3.2 12.9 0.00 0.00 0.00 91 1011.2
20260509130330 15 232 4.8 12.9 0.00 0.00 0.00 91 1011.3
20260509130218 15 202 6.4 12.9 0.00 0.00 0.00 91 1011.2
20260509130145 15 219 6.4 12.9 0.00 0.00 0.00 91 1011.2
20260509130012 15 200 6.4 12.9 0.00 0.00 0.00 91 1011.2
20260509125919 15 209 8.0 12.9 0.00 0.00 0.00 91 1011.3
20260509125830 15 253 8.0 12.9 0.00 0.00 0.00 91 1011.3
20260509125719 15 228 6.4 12.9 0.00 0.00 0.00 91 1011.2
20260509125626 15 249 4.8 12.9 0.00 0.00 0.00 91 1011.2
20260509125533 15 225 3.2 11.3 0.00 0.00 0.00 91 1011.2
20260509125419 15 275 4.8 11.3 0.00 0.00 0.00 91 1011.3
20260509125326 15 216 6.4 11.3 0.00 0.00 0.00 91 1011.3
20260509125216 15 197 4.8 11.3 0.00 0.00 0.00 91 1011.3
20260509125124 15 196 3.2 11.3 0.00 0.00 0.00 91 1011.3
20260509125056 15 221 3.2 11.3 0.00 0.00 0.00 91 1011.3
20260509124829 15 212 4.8 11.3 0.00 0.00 0.00 91 1011.3
20260509124736 15 211 6.4 11.3 0.00 0.00 0.00 91 1011.4
20260509124627 15 221 6.4 11.3 0.00 0.00 0.00 91 1011.4
20260509124514 15 192 6.4 11.3 0.00 0.00 0.00 91 1011.4
20260509124422 15 211 4.8 11.3 0.00 0.00 0.00 91 1011.4
20260509124330 15 187 4.8 11.3 0.00 0.00 0.00 91 1011.3
20260509124218 15 220 4.8 11.3 0.00 0.00 0.00 91 1011.4
20260509124127 15 203 6.4 11.3 0.00 0.00 0.00 91 1011.4
20260509124017 15 192 6.4 11.3 0.00 0.00 0.00 91 1011.4
20260509123926 15 200 4.8 11.3 0.00 0.00 0.00 91 1011.4
20260509123834 15 196 4.8 11.3 0.00 0.00 0.00 91 1011.4
20260509123720 15 192 6.4 11.3 0.00 0.00 0.00 91 1011.4
20260509123648 15 250 6.4 12.9 0.00 0.00 0.00 91 1011.4
20260509123601 15 247 4.8 12.9 0.00 0.00 0.00 91 1011.4
20260509123314 15 248 4.8 14.5 0.00 0.00 0.00 91 1011.3
20260509123221 15 232 4.8 14.5 0.00 0.00 0.00 91 1011.3
20260509123129 15 184 4.8 14.5 0.00 0.00 0.00 91 1011.4
20260509123017 15 227 4.8 14.5 0.00 0.00 0.00 91 1011.5
20260509122928 15 239 4.8 14.5 0.00 0.00 0.00 91 1011.5
20260509122816 15 263 6.4 14.5 0.00 0.00 0.00 91 1011.5
20260509122725 15 183 6.4 14.5 0.00 0.00 0.00 91 1011.5
20260509122611 15 221 6.4 14.5 0.00 0.00 0.00 91 1011.6
20260509122518 15 202 8.0 14.5 0.00 0.00 0.00 91 1011.5
20260509122426 15 182 11.3 14.5 0.00 0.00 0.00 91 1011.5
20260509122337 15 184 9.7 14.5 0.00 0.00 0.00 91 1011.6
20260509122224 15 197 9.7 14.5 0.00 0.00 0.00 91 1011.6
20260509122131 15 186 8.0 14.5 0.00 0.00 0.00 91 1011.6
20260509122100 15 205 8.0 14.5 0.00 0.00 0.00 91 1011.5
20260509121834 15 199 8.0 14.5 0.00 0.00 0.00 91 1011.4
20260509121724 15 205 9.7 14.5 0.00 0.00 0.00 91 1011.4
20260509121612 15 206 9.7 14.5 0.00 0.00 0.00 90 1011.4
20260509121539 15 195 9.7 14.5 0.00 0.00 0.00 90 1011.4
20260509121426 15 201 9.7 14.5 0.00 0.00 0.00 91 1011.4
20260509121314 15 195 6.4 12.9 0.00 0.00 0.00 91 1011.4
20260509121221 15 192 4.8 12.9 0.00 0.00 0.00 91 1011.4
20260509121112 15 194 6.4 12.9 0.00 0.00 0.00 91 1011.4
20260509121019 15 196 6.4 12.9 0.00 0.00 0.00 91 1011.4
20260509120926 15 192 6.4 12.9 0.00 0.00 0.00 91 1011.4
20260509120814 15 188 6.4 11.3 0.00 0.00 0.00 91 1011.4
20260509120721 15 190 4.8 11.3 0.00 0.00 0.00 91 1011.4
20260509120630 15 192 6.4 11.3 0.00 0.00 0.00 91 1011.4
20260509120600 15 186 6.4 11.3 0.00 0.00 0.00 91 1011.3
20260509120312 15 164 6.4 11.3 0.00 0.00 0.00 91 1011.4
20260509120220 15 182 6.4 11.3 0.00 0.00 0.00 91 1011.3
20260509120127 15 188 4.8 11.3 0.00 0.00 0.00 91 1011.3
20260509120019 15 177 3.2 11.3 0.00 0.00 0.00 91 1011.2
20260509115948 15 178 4.8 11.3 0.00 0.00 0.00 91 1011.2
20260509115814 15 175 6.4 11.3 0.00 0.00 0.00 91 1011.3
20260509115721 15 167 6.4 11.3 0.00 0.00 0.00 91 1011.3
20260509115628 15 219 6.4 11.3 0.00 0.00 0.00 91 1011.2
20260509115519 15 248 4.8 9.7 0.00 0.00 0.00 91 1011.2
20260509115426 15 200 4.8 9.7 0.00 0.00 0.00 91 1011.2
20260509115314 15 200 4.8 9.7 0.00 0.00 0.00 91 1011.2
20260509115222 15 202 4.8 9.7 0.00 0.00 0.00 91 1011.2
20260509115149 15 180 3.2 8.0 0.00 0.00 0.00 91 1011.1
20260509115123 15 225 1.6 8.0 0.00 0.00 0.00 91 1011.1
20260509114815 15 227 1.6 8.0 0.00 0.00 0.00 91 1011.0
20260509114722 15 191 1.6 8.0 0.00 0.00 0.00 91 1011.0
20260509114630 15 200 3.2 8.0 0.00 0.00 0.00 91 1010.9
20260509114518 15 195 4.8 8.0 0.00 0.00 0.00 91 1011.0
20260509114425 15 244 4.8 8.0 0.00 0.00 0.00 91 1011.0
20260509114337 15 216 3.2 8.0 0.00 0.00 0.00 91 1011.0
20260509114222 15 220 4.8 8.0 0.00 0.00 0.00 91 1011.0
20260509114129 15 215 4.8 8.0 0.00 0.00 0.00 90 1010.9
20260509114016 15 201 4.8 8.0 0.00 0.00 0.00 91 1010.9
20260509113944 15 233 3.2 8.0 0.00 0.00 0.00 90 1010.9
20260509113829 15 217 3.2 8.0 0.00 0.00 0.00 90 1010.9
20260509113720 15 228 3.2 8.0 0.00 0.00 0.00 90 1010.9
20260509113629 15 205 4.8 8.0 0.00 0.00 0.00 90 1010.8
20260509113557 15 210 6.4 8.0 0.00 0.00 0.00 90 1010.8
20260509113312 15 171 4.8 8.0 0.00 0.00 0.00 90 1010.7
20260509113224 15 203 3.2 8.0 0.00 0.00 0.00 91 1010.7
20260509113111 15 195 3.2 6.4 0.00 0.00 0.00 91 1010.7
20260509113019 15 175 3.2 6.4 0.00 0.00 0.00 91 1010.7
20260509112926 15 169 3.2 6.4 0.00 0.00 0.00 91 1010.7
20260509112814 15 193 3.2 6.4 0.00 0.00 0.00 91 1010.6
20260509112742 15 185 1.6 6.4 0.00 0.00 0.00 91 1010.6
20260509112612 15 211 1.6 4.8 0.00 0.00 0.00 90 1010.5
20260509112520 15 211 1.6 4.8 0.00 0.00 0.00 91 1010.5
20260509112427 15 211 1.6 4.8 0.00 0.00 0.00 90 1010.6
20260509112314 15 218 1.6 4.8 0.00 0.00 0.00 90 1010.5
20260509112221 14 205 1.6 4.8 0.00 0.00 0.00 90 1010.5
20260509112123 14 205 3.2 4.8 0.00 0.00 0.00 90 1010.5
20260509111816 14 209 3.2 4.8 0.00 0.00 0.00 90 1010.5
20260509111723 14 178 3.2 4.8 0.00 0.00 0.00 91 1010.5
20260509111652 14 200 1.6 4.8 0.00 0.00 0.00 91 1010.5
20260509111518 14 204 1.6 4.8 0.00 0.00 0.00 91 1010.6
20260509111429 14 229 1.6 4.8 0.00 0.00 0.00 91 1010.6
20260509111336 14 246 1.6 4.8 0.00 0.00 0.00 91 1010.6
20260509111243 14 242 1.6 8.0 0.00 0.00 0.00 90 1010.6
20260509111129 14 211 1.6 8.0 0.00 0.00 0.00 90 1010.4
20260509111037 14 194 3.2 8.0 0.00 0.00 0.00 90 1010.4
20260509110923 14 198 3.2 8.0 0.00 0.00 0.00 90 1010.4
20260509110851 14 198 3.2 8.0 0.00 0.00 0.00 90 1010.3
20260509110721 14 216 1.6 8.0 0.00 0.00 0.00 90 1010.3
20260509110600 14 182 3.2 8.0 0.00 0.00 0.00 90 1010.4
20260509110314 14 210 4.8 8.0 0.00 0.00 0.00 90 1010.6
20260509110224 14 196 4.8 8.0 0.00 0.00 0.00 90 1010.6
20260509110111 14 180 4.8 8.0 0.00 0.00 0.00 90 1010.4
20260509110019 14 194 4.8 8.0 0.00 0.00 0.00 90 1010.4
20260509105927 14 192 4.8 8.0 0.00 0.00 0.00 90 1010.4
20260509105834 14 200 4.8 8.0 0.00 0.00 0.00 90 1010.3
20260509105719 14 208 4.8 8.0 0.00 0.00 0.00 90 1010.4
20260509105646 14 177 3.2 8.0 0.00 0.00 0.00 90 1010.4
20260509105518 14 179 1.6 6.4 0.00 0.00 0.00 90 1010.4
20260509105425 14 155 1.6 6.4 0.00 0.00 0.00 90 1010.4
20260509105313 14 187 0.0 8.0 0.00 0.00 0.00 90 1010.4
20260509105241 14 202 0.0 8.0 0.00 0.00 0.00 90 1010.3
20260509105120 14 202 1.6 8.0 0.00 0.00 0.00 90 1010.3
20260509104813 14 202 3.2 8.0 0.00 0.00 0.00 90 1010.2
20260509104740 14 199 3.2 8.0 0.00 0.00 0.00 90 1010.2
20260509104627 14 191 3.2 8.0 0.00 0.00 0.00 90 1010.2
20260509104514 14 186 3.2 6.4 0.00 0.00 0.00 90 1010.1
20260509104421 14 193 3.2 6.4 0.00 0.00 0.00 90 1010.1
20260509104328 14 206 1.6 6.4 0.00 0.00 0.00 90 1010.1
20260509104218 14 218 1.6 4.8 0.00 0.00 0.00 90 1010.1
20260509104125 14 201 1.6 4.8 0.00 0.00 0.00 90 1010.1
20260509104012 14 203 1.6 4.8 0.00 0.00 0.00 90 1010.1
20260509103941 14 196 1.6 4.8 0.00 0.00 0.00 90 1010.1
20260509103827 14 192 0.0 4.8 0.00 0.00 0.00 90 1010.0
20260509103718 14 221 1.6 6.4 0.00 0.00 0.00 90 1010.1
20260509103618 14 221 1.6 6.4 0.00 0.00 0.00 90 1010.1
20260509103311 14 205 1.6 6.4 0.00 0.00 0.00 90 1010.1
20260509103219 14 205 1.6 6.4 0.00 0.00 0.00 90 1010.1
20260509103130 14 206 1.6 6.4 0.00 0.00 0.00 90 1010.1
20260509103018 14 219 1.6 6.4 0.00 0.00 0.00 90 1010.1
20260509102926 14 209 1.6 6.4 0.00 0.00 0.00 90 1010.1
20260509102814 14 199 1.6 6.4 0.00 0.00 0.00 90 1010.0
20260509102742 14 209 3.2 6.4 0.00 0.00 0.00 90 1010.0
20260509102627 14 217 4.8 6.4 0.00 0.00 0.00 90 1010.0
20260509102519 14 209 4.8 6.4 0.00 0.00 0.00 90 1009.8
20260509102427 14 200 3.2 6.4 0.00 0.00 0.00 90 1009.8
20260509102314 14 182 1.6 6.4 0.00 0.00 0.00 90 1009.8
20260509102222 14 152 0.0 6.4 0.00 0.00 0.00 90 1009.8
20260509102150 14 152 0.0 6.4 0.00 0.00 0.00 90 1009.8
20260509102124 14 150 0.0 6.4 0.00 0.00 0.00 90 1009.8
20260509101818 14 150 0.0 6.4 0.00 0.00 0.00 90 1009.8
20260509101725 14 150 1.6 6.4 0.00 0.00 0.00 90 1009.8
20260509101614 14 150 3.2 6.4 0.00 0.00 0.00 90 1009.8
20260509101543 14 136 3.2 4.8 0.00 0.00 0.00 90 1009.8
20260509101414 14 139 3.2 4.8 0.00 0.00 0.00 90 1009.7
20260509101321 14 153 3.2 4.8 0.00 0.00 0.00 90 1009.7
20260509101228 14 153 3.2 4.8 0.00 0.00 0.00 90 1009.8
20260509101116 14 145 3.2 4.8 0.00 0.00 0.00 90 1009.8
20260509101024 14 143 3.2 4.8 0.00 0.00 0.00 90 1009.8
20260509100930 14 136 1.6 6.4 0.00 0.00 0.00 90 1009.8
20260509100821 14 189 1.6 6.4 0.00 0.00 0.00 90 1009.9
20260509100729 14 190 0.0 6.4 0.00 0.00 0.00 90 1009.8
20260509100616 14 190 0.0 6.4 0.00 0.00 0.00 90 1009.9
20260509100547 14 190 1.6 6.4 0.00 0.00 0.00 90 1009.9
20260509100340 14 188 1.6 6.4 0.00 0.00 0.00 90 1009.8
20260509100230 14 175 3.2 6.4 0.00 0.00 0.00 90 1009.8
20260509100118 14 226 3.2 6.4 0.00 0.00 0.00 90 1009.9
20260509100026 14 186 3.2 6.4 0.00 0.00 0.00 90 1009.9
20260509095933 14 134 3.2 6.4 0.00 0.00 0.00 90 1009.9
20260509095819 14 139 1.6 6.4 0.00 0.00 0.00 90 1009.8
20260509095727 14 176 1.6 8.0 0.00 0.00 0.00 90 1009.8
20260509095618 14 150 3.2 8.0 0.00 0.00 0.00 90 1009.9
20260509095525 14 126 3.2 8.0 0.00 0.00 0.00 90 1009.9
20260509095412 14 153 3.2 8.0 0.00 0.00 0.00 90 1009.7
20260509095320 14 169 3.2 8.0 0.00 0.00 0.00 90 1009.7
20260509095248 14 148 3.2 8.0 0.00 0.00 0.00 90 1009.9
20260509095118 14 130 3.2 8.0 0.00 0.00 0.00 90 1010.0
20260509095047 14 181 3.2 8.0 0.00 0.00 0.00 90 1010.0
20260509094821 14 178 1.6 6.4 0.00 0.00 0.00 90 1010.0
20260509094727 14 189 1.6 6.4 0.00 0.00 0.00 90 1010.0
20260509094615 14 180 1.6 6.4 0.00 0.00 0.00 90 1010.0
20260509094548 14 199 1.6 6.4 0.00 0.00 0.00 90 1010.0
20260509094414 14 187 1.6 8.0 0.00 0.00 0.00 90 1010.0
20260509094322 14 163 1.6 8.0 0.00 0.00 0.00 90 1010.0
20260509094230 14 163 3.2 8.0 0.00 0.00 0.00 90 1010.1
20260509094119 14 157 3.2 8.0 0.00 0.00 0.00 89 1010.3
20260509094011 14 202 1.6 8.0 0.00 0.00 0.00 89 1010.3
20260509093917 14 216 0.0 8.0 0.00 0.00 0.00 89 1010.4
20260509093845 14 223 0.0 8.0 0.00 0.00 0.00 89 1010.4
20260509093731 14 223 3.2 8.0 0.00 0.00 0.00 89 1010.4
20260509093619 14 215 4.8 8.0 0.00 0.00 0.00 89 1010.5
20260509093553 14 217 4.8 9.7 0.00 0.00 0.00 89 1010.5
20260509093326 14 228 4.8 9.7 0.00 0.00 0.00 89 1010.3
20260509093213 14 220 4.8 9.7 0.00 0.00 0.00 89 1010.2
20260509093121 14 196 4.8 9.7 0.00 0.00 0.00 89 1010.2
20260509093029 14 192 4.8 9.7 0.00 0.00 0.00 89 1010.2
20260509092916 14 207 4.8 9.7 0.00 0.00 0.00 89 1010.2
20260509092827 14 200 6.4 9.7 0.00 0.00 0.00 89 1010.2
20260509092715 14 220 4.8 9.7 0.00 0.00 0.00 89 1010.4
20260509092622 14 204 6.4 9.7 0.00 0.00 0.00 89 1010.4
20260509092529 14 213 6.4 9.7 0.00 0.00 0.00 88 1010.3
20260509092416 14 213 6.4 11.3 0.00 0.00 0.00 88 1010.4
20260509092327 14 181 4.8 11.3 0.00 0.00 0.00 88 1010.4
20260509092214 14 180 4.8 11.3 0.00 0.00 0.00 88 1010.3
20260509092122 14 205 6.4 11.3 0.00 0.00 0.00 88 1010.3
20260509092053 14 198 6.4 11.3 0.00 0.00 0.00 88 1010.3
20260509091847 14 206 6.4 12.9 0.00 0.00 0.00 88 1010.2
20260509091718 14 173 6.4 12.9 0.00 0.00 0.00 88 1010.1
20260509091646 14 145 6.4 12.9 0.00 0.00 0.00 87 1010.1
20260509091552 14 175 6.4 12.9 0.00 0.00 0.00 87 1010.0
20260509091418 14 168 8.0 14.5 0.00 0.00 0.00 87 1010.1
20260509091326 14 192 6.4 14.5 0.00 0.00 0.00 87 1010.1
20260509091234 14 192 4.8 14.5 0.00 0.00 0.00 87 1010.1
20260509091120 14 175 6.4 14.5 0.00 0.00 0.00 87 1010.1
20260509091011 14 183 9.7 17.7 0.00 0.00 0.00 87 1010.0
20260509090919 14 163 9.7 17.7 0.00 0.00 0.00 87 1010.1
20260509090827 14 179 9.7 17.7 0.00 0.00 0.00 87 1010.1
20260509090734 14 193 8.0 17.7 0.00 0.00 0.00 87 1010.1
20260509090620 14 186 8.0 17.7 0.00 0.00 0.00 87 1010.1
20260509090553 14 175 8.0 17.7 0.00 0.00 0.00 87 1010.2
20260509090327 14 139 9.7 17.7 0.00 0.00 0.00 86 1010.2
20260509090214 14 175 8.0 19.3 0.00 0.00 0.00 86 1010.1
20260509090122 14 160 6.4 12.9 0.00 0.00 0.00 86 1010.1
20260509090029 15 146 6.4 12.9 0.00 0.00 0.00 86 1010.3
20260509085921 14 141 6.4 12.9 0.00 0.00 0.00 86 1010.3
20260509085829 15 160 6.4 14.5 0.00 0.00 0.00 86 1010.2
20260509085716 14 179 6.4 14.5 0.00 0.00 0.00 86 1010.3
20260509085624 14 180 6.4 14.5 0.00 0.00 0.00 86 1010.3
20260509085531 15 185 6.4 14.5 0.00 0.00 0.00 86 1010.3
20260509085421 15 173 8.0 14.5 0.00 0.00 0.00 86 1010.3
20260509085330 15 179 8.0 14.5 0.00 0.00 0.00 86 1010.3
20260509085218 15 126 8.0 14.5 0.00 0.00 0.00 86 1010.2
20260509085124 15 147 8.0 14.5 0.00 0.00 0.00 85 1010.2
20260509085054 15 124 8.0 14.5 0.00 0.00 0.00 85 1010.2
20260509084811 15 176 6.4 12.9 0.00 0.00 0.00 85 1010.4
20260509084718 15 182 6.4 12.9 0.00 0.00 0.00 85 1010.4
20260509084626 15 166 8.0 12.9 0.00 0.00 0.00 85 1010.4
20260509084514 15 153 8.0 12.9 0.00 0.00 0.00 85 1010.4
20260509084441 15 198 6.4 11.3 0.00 0.00 0.00 85 1010.5
20260509084326 15 180 6.4 9.7 0.00 0.00 0.00 85 1010.5
20260509084218 15 182 6.4 9.7 0.00 0.00 0.00 85 1010.5
20260509084125 15 184 6.4 9.7 0.00 0.00 0.00 85 1010.5
20260509084013 15 200 4.8 11.3 0.00 0.00 0.00 85 1010.6
20260509083941 15 165 4.8 11.3 0.00 0.00 0.00 85 1010.6
20260509083827 15 182 4.8 11.3 0.00 0.00 0.00 85 1010.5
20260509083715 14 168 6.4 12.9 0.00 0.00 0.00 85 1010.5
20260509083627 15 181 6.4 12.9 0.00 0.00 0.00 85 1010.5
20260509083557 14 185 6.4 12.9 0.00 0.00 0.00 85 1010.5
20260509083330 14 197 4.8 12.9 0.00 0.00 0.00 85 1010.6
20260509083218 15 165 4.8 12.9 0.00 0.00 0.00 85 1010.7
20260509083146 15 186 6.4 12.9 0.00 0.00 0.00 85 1010.7
20260509083016 14 198 8.0 12.9 0.00 0.00 0.00 85 1010.6
20260509082924 14 191 6.4 12.9 0.00 0.00 0.00 85 1010.6
20260509082851 14 171 6.4 12.9 0.00 0.00 0.00 85 1010.7
20260509082737 14 181 6.4 11.3 0.00 0.00 0.00 85 1010.8
20260509082624 14 182 6.4 11.3 0.00 0.00 0.00 85 1010.8
20260509082531 14 186 6.4 11.3 0.00 0.00 0.00 85 1010.9
20260509082423 14 180 6.4 12.9 0.00 0.00 0.00 85 1010.9
20260509082330 14 178 4.8 12.9 0.00 0.00 0.00 85 1010.8
20260509082237 14 163 3.2 12.9 0.00 0.00 0.00 85 1010.8
20260509082124 14 180 6.4 12.9 0.00 0.00 0.00 85 1010.8
20260509082055 14 151 6.4 12.9 0.00 0.00 0.00 85 1010.8
20260509081812 14 191 8.0 12.9 0.00 0.00 0.00 86 1010.9
20260509081719 14 177 8.0 12.9 0.00 0.00 0.00 86 1010.8
20260509081626 14 192 6.4 12.9 0.00 0.00 0.00 86 1010.8
20260509081515 14 190 4.8 8.0 0.00 0.00 0.00 86 1010.8
20260509081422 14 163 4.8 8.0 0.00 0.00 0.00 86 1010.8
20260509081313 14 173 4.8 8.0 0.00 0.00 0.00 86 1010.8
20260509081220 14 178 3.2 8.0 0.00 0.00 0.00 86 1010.8
20260509081128 14 180 3.2 8.0 0.00 0.00 0.00 86 1010.9
20260509081016 14 201 3.2 8.0 0.00 0.00 0.00 86 1010.8
20260509080923 14 206 3.2 8.0 0.00 0.00 0.00 86 1010.8
20260509080815 14 203 1.6 8.0 0.00 0.00 0.00 86 1010.8
20260509080742 14 198 1.6 6.4 0.00 0.00 0.00 86 1010.8
20260509080648 14 198 1.6 6.4 0.00 0.00 0.00 86 1010.7
20260509080618 14 198 1.6 8.0 0.00 0.00 0.00 86 1010.7
20260509080351 14 209 1.6 8.0 0.00 0.00 0.00 87 1010.9
20260509080216 14 183 3.2 8.0 0.00 0.00 0.00 87 1010.9
20260509080127 14 196 3.2 8.0 0.00 0.00 0.00 87 1010.9
20260509080015 14 173 3.2 8.0 0.00 0.00 0.00 87 1010.9
20260509075923 14 197 1.6 8.0 0.00 0.00 0.00 87 1010.9
20260509075831 14 187 1.6 8.0 0.00 0.00 0.00 87 1011.0
20260509075717 14 221 3.2 8.0 0.00 0.00 0.00 87 1011.0
20260509075624 13 173 4.8 8.0 0.00 0.00 0.00 87 1011.0
20260509075535 13 196 3.2 8.0 0.00 0.00 0.00 87 1011.0
20260509075422 13 182 1.6 4.8 0.00 0.00 0.00 87 1011.0
20260509075329 13 215 1.6 4.8 0.00 0.00 0.00 87 1011.0
20260509075218 13 200 1.6 4.8 0.00 0.00 0.00 88 1011.1
20260509075126 13 213 1.6 4.8 0.00 0.00 0.00 88 1011.1
20260509075059 13 240 1.6 4.8 0.00 0.00 0.00 88 1011.1
20260509074812 13 200 1.6 11.3 0.00 0.00 0.00 88 1010.8
20260509074720 13 200 1.6 11.3 0.00 0.00 0.00 88 1010.8
20260509074628 13 200 1.6 11.3 0.00 0.00 0.00 88 1010.7
20260509074515 13 161 1.6 11.3 0.00 0.00 0.00 88 1010.4
20260509074426 13 183 1.6 11.3 0.00 0.00 0.00 88 1010.4
20260509074314 13 204 3.2 11.3 0.00 0.00 0.00 88 1010.5
20260509074221 13 191 4.8 11.3 0.00 0.00 0.00 88 1010.5
20260509074128 13 174 6.4 11.3 0.00 0.00 0.00 88 1010.5
20260509074034 13 200 8.0 11.3 0.00 0.00 0.00 88 1010.6
20260509073919 13 169 8.0 11.3 0.00 0.00 0.00 88 1010.6
20260509073829 13 193 8.0 9.7 0.00 0.00 0.00 88 1010.6
20260509073717 13 176 4.8 9.7 0.00 0.00 0.00 88 1010.6
20260509073625 13 190 3.2 8.0 0.00 0.00 0.00 88 1010.6
20260509073555 13 209 1.6 6.4 0.00 0.00 0.00 88 1010.6
20260509073312 13 178 1.6 6.4 0.00 0.00 0.00 89 1010.5
20260509073220 13 163 1.6 6.4 0.00 0.00 0.00 89 1010.5
20260509073128 13 163 1.6 6.4 0.00 0.00 0.00 89 1010.4
20260509073014 13 163 1.6 6.4 0.00 0.00 0.00 89 1010.5
20260509072942 13 163 3.2 6.4 0.00 0.00 0.00 89 1010.5
20260509072828 13 152 3.2 6.4 0.00 0.00 0.00 89 1010.4
20260509072719 13 146 1.6 6.4 0.00 0.00 0.00 89 1010.4
20260509072626 13 157 1.6 4.8 0.00 0.00 0.00 89 1010.4
20260509072514 13 186 1.6 4.8 0.00 0.00 0.00 89 1010.5
20260509072422 13 186 1.6 4.8 0.00 0.00 0.00 89 1010.5
20260509072330 13 186 1.6 4.8 0.00 0.00 0.00 89 1010.6
20260509072221 13 186 3.2 4.8 0.00 0.00 0.00 89 1010.6
20260509072129 13 186 3.2 4.8 0.00 0.00 0.00 89 1010.7
20260509072100 13 185 1.6 4.8 0.00 0.00 0.00 89 1010.7
20260509071814 12 161 1.6 4.8 0.00 0.00 0.00 89 1010.7
20260509071720 12 161 1.6 4.8 0.00 0.00 0.00 89 1010.7
20260509071631 12 161 0.0 4.8 0.00 0.00 0.00 89 1010.7
20260509071539 12 161 0.0 4.8 0.00 0.00 0.00 89 1010.6
20260509071425 12 161 0.0 4.8 0.00 0.00 0.00 89 1010.6
20260509071311 12 161 1.6 4.8 0.00 0.00 0.00 90 1010.6
20260509071220 12 161 1.6 4.8 0.00 0.00 0.00 90 1010.6
20260509071148 12 140 1.6 4.8 0.00 0.00 0.00 90 1010.5
20260509071018 12 138 1.6 4.8 0.00 0.00 0.00 90 1010.5
20260509070946 12 172 1.6 4.8 0.00 0.00 0.00 90 1010.5
20260509070812 12 172 1.6 4.8 0.00 0.00 0.00 90 1010.5
20260509070720 12 172 1.6 4.8 0.00 0.00 0.00 89 1010.5
20260509070628 12 167 1.6 4.8 0.00 0.00 0.00 90 1010.4
20260509070601 12 180 0.0 4.8 0.00 0.00 0.00 90 1010.4
20260509070314 12 175 1.6 4.8 0.00 0.00 0.00 90 1010.5
20260509070223 12 145 3.2 4.8 0.00 0.00 0.00 90 1010.5
20260509070130 12 134 3.2 4.8 0.00 0.00 0.00 90 1010.5
20260509070017 12 155 1.6 3.2 0.00 0.00 0.00 89 1010.5
20260509065924 12 227 0.0 3.2 0.00 0.00 0.00 89 1010.5
20260509065816 12 227 0.0 3.2 0.00 0.00 0.00 89 1010.6
20260509065723 12 229 0.0 3.2 0.00 0.00 0.00 89 1010.6
20260509065629 12 271 0.0 3.2 0.00 0.00 0.00 89 1010.7
20260509065517 12 271 0.0 3.2 0.00 0.00 0.00 89 1010.7
20260509065444 12 271 0.0 3.2 0.00 0.00 0.00 89 1010.7
20260509065330 12 271 0.0 3.2 0.00 0.00 0.00 89 1010.7
20260509065241 12 271 1.6 3.2 0.00 0.00 0.00 89 1010.7
20260509065147 12 271 1.6 3.2 0.00 0.00 0.00 89 1010.8
20260509065056 12 271 1.6 3.2 0.00 0.00 0.00 89 1010.7
20260509064829 12 271 1.6 3.2 0.00 0.00 0.00 89 1010.8
20260509064738 12 271 0.0 1.6 0.00 0.00 0.00 89 1010.8
20260509064624 12 271 0.0 0.0 0.00 0.00 0.00 88 1010.8
20260509064517 12 271 0.0 0.0 0.00 0.00 0.00 88 1010.7
20260509064424 12 271 0.0 0.0 0.00 0.00 0.00 88 1010.7
20260509064331 12 271 0.0 0.0 0.00 0.00 0.00 89 1010.6
20260509064218 12 271 0.0 0.0 0.00 0.00 0.00 88 1010.6
20260509064124 12 271 0.0 0.0 0.00 0.00 0.00 88 1010.6
20260509064016 12 271 0.0 0.0 0.00 0.00 0.00 88 1010.6
20260509063924 12 271 0.0 0.0 0.00 0.00 0.00 88 1010.6
20260509063811 12 271 0.0 0.0 0.00 0.00 0.00 88 1010.5
20260509063719 12 271 0.0 0.0 0.00 0.00 0.00 88 1010.5
20260509063647 12 271 0.0 0.0 0.00 0.00 0.00 88 1010.5
20260509063621 12 271 0.0 0.0 0.00 0.00 0.00 88 1010.4
20260509063314 12 271 0.0 0.0 0.00 0.00 0.00 88 1010.5
20260509063221 12 271 0.0 0.0 0.00 0.00 0.00 88 1010.5
20260509063128 12 271 0.0 0.0 0.00 0.00 0.00 88 1010.6
20260509063035 12 271 0.0 0.0 0.00 0.00 0.00 88 1010.5
20260509062922 12 271 0.0 0.0 0.00 0.00 0.00 88 1010.5
20260509062814 12 271 0.0 0.0 0.00 0.00 0.00 88 1010.5
20260509062722 12 271 0.0 0.0 0.00 0.00 0.00 88 1010.5
20260509062650 12 271 0.0 0.0 0.00 0.00 0.00 88 1010.5
20260509062516 12 271 0.0 0.0 0.00 0.00 0.00 88 1010.5
20260509062423 12 271 0.0 0.0 0.00 0.00 0.00 88 1010.5
20260509062314 12 271 0.0 0.0 0.00 0.00 0.00 88 1010.4
20260509062222 12 271 0.0 0.0 0.00 0.00 0.00 88 1010.4
20260509062130 12 271 0.0 0.0 0.00 0.00 0.00 88 1010.5
20260509062101 12 271 0.0 0.0 0.00 0.00 0.00 88 1010.4
20260509061836 12 271 0.0 1.6 0.00 0.00 0.00 88 1010.5
20260509061726 12 271 0.0 1.6 0.00 0.00 0.00 88 1010.5
20260509061633 12 271 0.0 1.6 0.00 0.00 0.00 88 1010.6
20260509061541 12 271 0.0 1.6 0.00 0.00 0.00 87 1010.6
20260509061428 12 271 0.0 1.6 0.00 0.00 0.00 87 1010.5
20260509061335 12 271 0.0 1.6 0.00 0.00 0.00 87 1010.5
20260509061241 12 271 0.0 1.6 0.00 0.00 0.00 87 1010.5
20260509061148 12 271 0.0 1.6 0.00 0.00 0.00 87 1010.5
20260509061014 12 271 0.0 1.6 0.00 0.00 0.00 87 1010.5
20260509060927 12 277 0.0 0.0 0.00 0.00 0.00 87 1010.5
20260509060815 12 279 0.0 0.0 0.00 0.00 0.00 87 1010.6
20260509060722 12 279 0.0 0.0 0.00 0.00 0.00 87 1010.6
20260509060605 13 279 0.0 0.0 0.00 0.00 0.00 87 1010.6
20260509060339 13 279 0.0 0.0 0.00 0.00 0.00 87 1010.8
20260509060224 13 279 0.0 0.0 0.00 0.00 0.00 86 1010.8
20260509060112 13 279 0.0 0.0 0.00 0.00 0.00 86 1010.8
20260509060020 13 279 0.0 0.0 0.00 0.00 0.00 86 1010.8
20260509055927 13 279 0.0 0.0 0.00 0.00 0.00 86 1010.8
20260509055818 13 279 0.0 1.6 0.00 0.00 0.00 86 1010.8
20260509055725 13 279 0.0 4.8 0.00 0.00 0.00 86 1010.8
20260509055612 13 279 0.0 4.8 0.00 0.00 0.00 86 1010.8
20260509055541 13 279 0.0 4.8 0.00 0.00 0.00 86 1010.8
20260509055427 13 279 0.0 4.8 0.00 0.00 0.00 86 1010.8
20260509055314 13 279 0.0 4.8 0.00 0.00 0.00 86 1010.8
20260509055247 13 279 1.6 4.8 0.00 0.00 0.00 86 1010.8
20260509055132 13 279 1.6 4.8 0.00 0.00 0.00 86 1010.8
20260509055102 13 279 1.6 4.8 0.00 0.00 0.00 85 1010.8
20260509054835 13 142 0.0 0.0 0.00 0.00 0.00 85 1010.8
20260509054721 13 142 0.0 0.0 0.00 0.00 0.00 85 1010.8
20260509054614 13 142 0.0 0.0 0.00 0.00 0.00 85 1010.8
20260509054521 13 142 0.0 0.0 0.00 0.00 0.00 85 1010.8
20260509054427 13 142 0.0 0.0 0.00 0.00 0.00 85 1010.7
20260509054315 13 142 0.0 0.0 0.00 0.00 0.00 85 1010.7
20260509054244 13 142 0.0 0.0 0.00 0.00 0.00 85 1010.7
20260509054129 13 142 0.0 0.0 0.00 0.00 0.00 85 1010.8
20260509054021 13 142 0.0 0.0 0.00 0.00 0.00 85 1010.8
20260509053929 13 142 0.0 0.0 0.00 0.00 0.00 85 1010.8
20260509053817 13 142 0.0 0.0 0.00 0.00 0.00 85 1010.8
20260509053724 13 142 0.0 0.0 0.00 0.00 0.00 85 1010.8
20260509053612 13 142 0.0 0.0 0.00 0.00 0.00 84 1010.9
20260509053546 13 142 0.0 0.0 0.00 0.00 0.00 84 1010.9
20260509053319 13 142 0.0 0.0 0.00 0.00 0.00 84 1011.0
20260509053226 13 142 0.0 0.0 0.00 0.00 0.00 84 1011.0
20260509053115 13 142 0.0 0.0 0.00 0.00 0.00 84 1011.1
20260509053022 13 142 0.0 0.0 0.00 0.00 0.00 84 1011.1
20260509052913 13 142 0.0 0.0 0.00 0.00 0.00 84 1011.1
20260509052821 13 142 0.0 0.0 0.00 0.00 0.00 83 1011.1
20260509052727 13 142 0.0 0.0 0.00 0.00 0.00 83 1011.1
20260509052616 13 142 0.0 0.0 0.00 0.00 0.00 83 1011.1
20260509052543 13 142 0.0 0.0 0.00 0.00 0.00 83 1011.1
20260509052413 14 142 0.0 0.0 0.00 0.00 0.00 83 1011.1
20260509052319 14 142 0.0 0.0 0.00 0.00 0.00 83 1011.1
20260509052226 14 142 0.0 0.0 0.00 0.00 0.00 83 1011.1
20260509052154 14 142 0.0 0.0 0.00 0.00 0.00 83 1011.1
20260509052125 14 142 0.0 1.6 0.00 0.00 0.00 83 1011.1
20260509051818 14 142 0.0 1.6 0.00 0.00 0.00 82 1011.2
20260509051730 14 142 0.0 1.6 0.00 0.00 0.00 82 1011.2
20260509051618 14 142 0.0 1.6 0.00 0.00 0.00 82 1011.2
20260509051526 14 142 0.0 1.6 0.00 0.00 0.00 82 1011.2
20260509051433 14 142 0.0 1.6 0.00 0.00 0.00 82 1011.1
20260509051319 14 142 0.0 1.6 0.00 0.00 0.00 82 1011.1
20260509051226 14 142 0.0 1.6 0.00 0.00 0.00 82 1011.1
20260509051117 14 142 0.0 1.6 0.00 0.00 0.00 82 1011.2
20260509051023 14 142 0.0 1.6 0.00 0.00 0.00 82 1011.2
20260509050930 14 142 0.0 1.6 0.00 0.00 0.00 82 1011.1
20260509050818 14 142 0.0 4.8 0.00 0.00 0.00 82 1011.2
20260509050725 14 142 0.0 4.8 0.00 0.00 0.00 82 1011.2
20260509050633 14 142 0.0 4.8 0.00 0.00 0.00 82 1011.1
20260509050608 14 142 0.0 4.8 0.00 0.00 0.00 82 1011.1
20260509050320 14 142 0.0 4.8 0.00 0.00 0.00 82 1011.2
20260509050228 14 142 1.6 4.8 0.00 0.00 0.00 82 1011.2
20260509050115 14 142 1.6 4.8 0.00 0.00 0.00 82 1011.1
20260509050042 14 142 1.6 4.8 0.00 0.00 0.00 82 1011.1
20260509045912 14 140 1.6 4.8 0.00 0.00 0.00 82 1011.0
20260509045818 14 132 3.2 4.8 0.00 0.00 0.00 82 1011.0
20260509045725 14 128 3.2 4.8 0.00 0.00 0.00 82 1011.0
20260509045613 14 140 3.2 4.8 0.00 0.00 0.00 82 1011.1
20260509045522 14 134 1.6 4.8 0.00 0.00 0.00 82 1011.1
20260509045412 14 148 0.0 3.2 0.00 0.00 0.00 82 1011.3
20260509045320 14 148 0.0 0.0 0.00 0.00 0.00 82 1011.3
20260509045228 14 148 0.0 0.0 0.00 0.00 0.00 82 1011.3
20260509045116 14 148 0.0 0.0 0.00 0.00 0.00 82 1011.3
20260509045051 14 148 0.0 0.0 0.00 0.00 0.00 82 1011.3
20260509044824 14 148 0.0 0.0 0.00 0.00 0.00 82 1011.4
20260509044711 14 148 0.0 0.0 0.00 0.00 0.00 81 1011.5
20260509044620 14 148 0.0 0.0 0.00 0.00 0.00 81 1011.4
20260509044528 14 148 0.0 0.0 0.00 0.00 0.00 81 1011.4
20260509044415 14 148 0.0 0.0 0.00 0.00 0.00 81 1011.4
20260509044326 14 148 0.0 0.0 0.00 0.00 0.00 81 1011.4
20260509044213 14 148 0.0 0.0 0.00 0.00 0.00 81 1011.5
20260509044121 14 148 0.0 0.0 0.00 0.00 0.00 81 1011.5
20260509044029 14 148 0.0 0.0 0.00 0.00 0.00 81 1011.5
20260509043915 14 148 0.0 0.0 0.00 0.00 0.00 81 1011.6
20260509043828 14 148 0.0 0.0 0.00 0.00 0.00 81 1011.6
20260509043715 14 148 0.0 0.0 0.00 0.00 0.00 81 1011.6
20260509043642 14 148 0.0 0.0 0.00 0.00 0.00 81 1011.6
20260509043552 14 148 0.0 0.0 0.00 0.00 0.00 81 1011.6
20260509043325 14 148 0.0 0.0 0.00 0.00 0.00 81 1011.7
20260509043217 14 148 0.0 0.0 0.00 0.00 0.00 81 1011.7
20260509043125 14 148 0.0 0.0 0.00 0.00 0.00 81 1011.7
20260509043013 15 148 0.0 0.0 0.00 0.00 0.00 81 1011.6
20260509042941 15 148 0.0 0.0 0.00 0.00 0.00 81 1011.5
20260509042826 15 148 0.0 0.0 0.00 0.00 0.00 81 1011.5
20260509042713 15 148 0.0 0.0 0.00 0.00 0.00 81 1011.6
20260509042625 15 148 0.0 0.0 0.00 0.00 0.00 81 1011.6
20260509042512 15 148 0.0 0.0 0.00 0.00 0.00 81 1011.5
20260509042420 15 148 0.0 0.0 0.00 0.00 0.00 81 1011.5
20260509042327 15 148 0.0 0.0 0.00 0.00 0.00 81 1011.5
20260509042214 15 148 0.0 0.0 0.00 0.00 0.00 81 1011.5
20260509042056 15 148 0.0 0.0 0.00 0.00 0.00 81 1011.5
20260509041831 15 148 0.0 0.0 0.00 0.00 0.00 81 1011.5
20260509041720 15 148 0.0 0.0 0.00 0.00 0.00 81 1011.6
20260509041611 15 148 0.0 1.6 0.00 0.00 0.00 81 1011.5
20260509041518 15 148 0.0 3.2 0.00 0.00 0.00 80 1011.5
20260509041445 15 148 0.0 3.2 0.00 0.00 0.00 80 1011.5
20260509041352 15 148 0.0 3.2 0.00 0.00 0.00 80 1011.5
20260509041217 15 148 0.0 3.2 0.00 0.00 0.00 80 1011.4
20260509041125 15 148 0.0 3.2 0.00 0.00 0.00 80 1011.4
20260509041033 15 148 0.0 3.2 0.00 0.00 0.00 80 1011.6
20260509040919 15 148 0.0 4.8 0.00 0.00 0.00 80 1011.6
20260509040850 15 148 0.0 6.4 0.00 0.00 0.00 80 1011.6
20260509040716 15 148 1.6 6.4 0.00 0.00 0.00 80 1011.7
20260509040623 15 148 1.6 6.4 0.00 0.00 0.00 80 1011.7
20260509040554 15 148 3.2 6.4 0.00 0.00 0.00 80 1011.6
20260509040312 15 148 3.2 6.4 0.00 0.00 0.00 80 1011.7
20260509040219 15 148 3.2 6.4 0.00 0.00 0.00 80 1011.7
20260509040127 15 148 1.6 6.4 0.00 0.00 0.00 80 1011.7
20260509040014 15 148 3.2 6.4 0.00 0.00 0.00 80 1011.6
20260509035923 15 146 3.2 6.4 0.00 0.00 0.00 80 1011.6
20260509035830 15 137 3.2 6.4 0.00 0.00 0.00 80 1011.7
20260509035721 15 145 3.2 6.4 0.00 0.00 0.00 80 1011.6
20260509035629 15 144 3.2 6.4 0.00 0.00 0.00 80 1011.6
20260509035517 15 133 4.8 6.4 0.00 0.00 0.00 80 1011.5
20260509035424 15 134 4.8 6.4 0.00 0.00 0.00 80 1011.5
20260509035312 15 130 4.8 6.4 0.00 0.00 0.00 80 1011.4
20260509035223 15 126 4.8 6.4 0.00 0.00 0.00 80 1011.4
20260509035130 15 128 4.8 4.8 0.00 0.00 0.00 80 1011.5
20260509035101 15 129 3.2 4.8 0.00 0.00 0.00 80 1011.5
20260509034834 15 132 1.6 4.8 0.00 0.00 0.00 80 1011.7
20260509034720 15 134 1.6 3.2 0.00 0.00 0.00 80 1011.6
20260509034612 15 171 0.0 1.6 0.00 0.00 0.00 79 1011.8
20260509034519 15 171 0.0 1.6 0.00 0.00 0.00 79 1011.8
20260509034427 15 171 0.0 0.0 0.00 0.00 0.00 79 1011.8
20260509034315 15 171 0.0 0.0 0.00 0.00 0.00 79 1011.8
20260509034221 15 171 0.0 0.0 0.00 0.00 0.00 79 1011.8
20260509034148 15 171 0.0 0.0 0.00 0.00 0.00 79 1011.8
20260509034020 15 171 0.0 0.0 0.00 0.00 0.00 79 1011.8
20260509033946 15 171 0.0 0.0 0.00 0.00 0.00 79 1011.8
20260509033813 15 171 0.0 1.6 0.00 0.00 0.00 79 1011.8
20260509033720 15 171 0.0 1.6 0.00 0.00 0.00 79 1011.8
20260509033628 15 171 0.0 1.6 0.00 0.00 0.00 79 1011.8
20260509033601 15 171 0.0 1.6 0.00 0.00 0.00 78 1011.7
20260509033315 15 171 0.0 1.6 0.00 0.00 0.00 78 1011.9
20260509033223 15 171 0.0 1.6 0.00 0.00 0.00 78 1011.9
20260509033130 15 171 0.0 1.6 0.00 0.00 0.00 78 1011.9
20260509033017 15 171 0.0 1.6 0.00 0.00 0.00 78 1011.9
20260509032929 15 171 0.0 3.2 0.00 0.00 0.00 78 1011.9
20260509032816 15 171 0.0 4.8 0.00 0.00 0.00 77 1011.9
20260509032722 15 171 0.0 4.8 0.00 0.00 0.00 77 1011.9
20260509032629 15 171 0.0 4.8 0.00 0.00 0.00 77 1011.8
20260509032518 15 171 0.0 4.8 0.00 0.00 0.00 77 1011.9
20260509032445 15 171 0.0 4.8 0.00 0.00 0.00 77 1011.9
20260509032315 15 171 0.0 4.8 0.00 0.00 0.00 77 1011.9
20260509032221 15 171 1.6 4.8 0.00 0.00 0.00 77 1011.9
20260509032128 15 171 1.6 4.8 0.00 0.00 0.00 77 1011.9
20260509032057 15 171 1.6 4.8 0.00 0.00 0.00 77 1011.9
20260509031815 15 182 1.6 4.8 0.00 0.00 0.00 77 1012.0
20260509031723 15 182 1.6 4.8 0.00 0.00 0.00 77 1012.0
20260509031630 15 182 1.6 4.8 0.00 0.00 0.00 77 1012.1
20260509031518 15 167 3.2 4.8 0.00 0.00 0.00 76 1012.1
20260509031426 15 184 3.2 4.8 0.00 0.00 0.00 76 1012.1
20260509031333 15 187 1.6 3.2 0.00 0.00 0.00 76 1012.0
20260509031222 15 189 1.6 4.8 0.00 0.00 0.00 76 1012.0
20260509031129 15 194 1.6 4.8 0.00 0.00 0.00 76 1012.1
20260509031016 15 158 1.6 4.8 0.00 0.00 0.00 76 1012.1
20260509030923 15 187 1.6 4.8 0.00 0.00 0.00 76 1012.1
20260509030831 15 187 0.0 4.8 0.00 0.00 0.00 76 1012.1
20260509030717 16 187 1.6 4.8 0.00 0.00 0.00 76 1012.2
20260509030630 16 187 1.6 4.8 0.00 0.00 0.00 76 1012.2
20260509030600 16 187 3.2 4.8 0.00 0.00 0.00 76 1012.1
20260509030314 16 186 1.6 4.8 0.00 0.00 0.00 76 1012.2
20260509030221 16 188 1.6 4.8 0.00 0.00 0.00 76 1012.2
20260509030113 16 184 1.6 4.8 0.00 0.00 0.00 75 1012.3
20260509030020 16 195 1.6 4.8 0.00 0.00 0.00 75 1012.3
20260509025928 16 195 1.6 4.8 0.00 0.00 0.00 75 1012.3
20260509025814 16 195 1.6 4.8 0.00 0.00 0.00 75 1012.2
20260509025722 16 195 3.2 4.8 0.00 0.00 0.00 75 1012.2
20260509025613 16 195 3.2 4.8 0.00 0.00 0.00 75 1012.2
20260509025520 16 186 1.6 4.8 0.00 0.00 0.00 75 1012.2
20260509025426 16 187 0.0 4.8 0.00 0.00 0.00 75 1012.2
20260509025333 16 150 0.0 4.8 0.00 0.00 0.00 75 1012.0
20260509025220 16 150 0.0 4.8 0.00 0.00 0.00 74 1012.0
20260509025128 16 150 1.6 4.8 0.00 0.00 0.00 74 1012.0
20260509025102 16 150 1.6 4.8 0.00 0.00 0.00 74 1011.9
20260509024815 16 150 1.6 4.8 0.00 0.00 0.00 74 1012.0
20260509024722 16 147 3.2 4.8 0.00 0.00 0.00 74 1012.0
20260509024649 16 147 3.2 4.8 0.00 0.00 0.00 74 1012.0
20260509024517 16 143 3.2 4.8 0.00 0.00 0.00 74 1011.9
20260509024423 16 150 3.2 4.8 0.00 0.00 0.00 74 1011.9
20260509024314 16 150 3.2 4.8 0.00 0.00 0.00 74 1012.0
20260509024222 16 142 3.2 4.8 0.00 0.00 0.00 74 1012.0
20260509024130 16 124 1.6 4.8 0.00 0.00 0.00 74 1012.0
20260509024018 16 136 1.6 6.4 0.00 0.00 0.00 74 1012.0
20260509023926 16 150 1.6 6.4 0.00 0.00 0.00 74 1012.0
20260509023818 16 150 1.6 6.4 0.00 0.00 0.00 74 1012.0
20260509023746 16 150 1.6 6.4 0.00 0.00 0.00 74 1012.0
20260509023632 16 159 1.6 6.4 0.00 0.00 0.00 74 1011.9
20260509023601 16 196 1.6 6.4 0.00 0.00 0.00 74 1012.0
20260509023334 16 167 1.6 8.0 0.00 0.00 0.00 73 1012.0
20260509023224 16 168 1.6 8.0 0.00 0.00 0.00 73 1012.0
20260509023112 16 191 1.6 8.0 0.00 0.00 0.00 73 1012.1
20260509023019 16 184 3.2 8.0 0.00 0.00 0.00 73 1012.2
20260509022925 16 148 3.2 9.7 0.00 0.00 0.00 73 1012.2
20260509022814 16 200 3.2 9.7 0.00 0.00 0.00 73 1012.1
20260509022722 16 201 3.2 9.7 0.00 0.00 0.00 73 1012.1
20260509022614 16 190 4.8 9.7 0.00 0.00 0.00 73 1012.2
20260509022522 16 209 4.8 9.7 0.00 0.00 0.00 73 1012.2
20260509022429 16 207 4.8 11.3 0.00 0.00 0.00 73 1012.1
20260509022317 16 183 4.8 11.3 0.00 0.00 0.00 73 1012.1
20260509022245 16 201 6.4 11.3 0.00 0.00 0.00 73 1012.1
20260509022116 16 188 6.4 11.3 0.00 0.00 0.00 73 1012.0
20260509022047 16 194 4.8 14.5 0.00 0.00 0.00 73 1012.0
20260509021820 16 176 4.8 14.5 0.00 0.00 0.00 73 1012.1
20260509021727 16 159 4.8 14.5 0.00 0.00 0.00 73 1012.1
20260509021615 16 151 8.0 14.5 0.00 0.00 0.00 73 1012.1
20260509021525 16 205 8.0 14.5 0.00 0.00 0.00 73 1012.1
20260509021433 17 190 6.4 14.5 0.00 0.00 0.00 72 1012.1
20260509021320 16 168 6.4 14.5 0.00 0.00 0.00 72 1012.1
20260509021227 17 211 6.4 14.5 0.00 0.00 0.00 72 1012.1
20260509021115 17 187 8.0 14.5 0.00 0.00 0.00 72 1012.0
20260509021023 17 175 6.4 14.5 0.00 0.00 0.00 72 1012.0
20260509020914 17 183 4.8 11.3 0.00 0.00 0.00 72 1012.1
20260509020822 17 214 4.8 11.3 0.00 0.00 0.00 72 1012.1
20260509020731 17 196 6.4 11.3 0.00 0.00 0.00 72 1012.1
20260509020637 17 131 6.4 11.3 0.00 0.00 0.00 72 1012.0
20260509020611 17 191 6.4 11.3 0.00 0.00 0.00 72 1011.9
20260509020325 17 178 6.4 11.3 0.00 0.00 0.00 72 1012.0
20260509020213 17 190 4.8 11.3 0.00 0.00 0.00 72 1012.0
20260509020120 17 216 3.2 9.7 0.00 0.00 0.00 72 1011.9
20260509020028 17 144 3.2 9.7 0.00 0.00 0.00 72 1011.9
20260509015915 17 192 3.2 9.7 0.00 0.00 0.00 72 1011.9
20260509015827 17 198 3.2 9.7 0.00 0.00 0.00 72 1011.9
20260509015715 17 195 3.2 9.7 0.00 0.00 0.00 72 1011.9
20260509015623 17 186 4.8 9.7 0.00 0.00 0.00 72 1011.9
20260509015531 17 145 4.8 9.7 0.00 0.00 0.00 72 1011.9
20260509015419 17 196 6.4 9.7 0.00 0.00 0.00 71 1011.9
20260509015330 17 198 6.4 9.7 0.00 0.00 0.00 71 1011.9
20260509015237 17 193 6.4 9.7 0.00 0.00 0.00 71 1012.0
20260509015123 17 197 4.8 9.7 0.00 0.00 0.00 71 1012.0
20260509015053 17 173 3.2 9.7 0.00 0.00 0.00 71 1011.9
20260509014827 17 198 3.2 9.7 0.00 0.00 0.00 71 1012.0
20260509014739 17 191 4.8 9.7 0.00 0.00 0.00 71 1011.8
20260509014626 17 234 4.8 9.7 0.00 0.00 0.00 71 1011.8
20260509014512 17 197 4.8 11.3 0.00 0.00 0.00 70 1012.0
20260509014420 17 196 4.8 11.3 0.00 0.00 0.00 70 1011.9
20260509014328 17 197 6.4 11.3 0.00 0.00 0.00 70 1011.9
20260509014215 17 184 4.8 11.3 0.00 0.00 0.00 70 1011.9
20260509014127 17 195 4.8 11.3 0.00 0.00 0.00 70 1011.9
20260509014015 17 199 6.4 11.3 0.00 0.00 0.00 70 1012.0
20260509013923 17 190 6.4 11.3 0.00 0.00 0.00 70 1012.0
20260509013830 17 168 8.0 11.3 0.00 0.00 0.00 70 1011.8
20260509013719 17 178 6.4 11.3 0.00 0.00 0.00 70 1011.8
20260509013630 17 206 4.8 11.3 0.00 0.00 0.00 70 1011.8
20260509013600 17 180 4.8 11.3 0.00 0.00 0.00 70 1011.8
20260509013314 17 200 6.4 11.3 0.00 0.00 0.00 69 1011.8
20260509013222 17 186 6.4 11.3 0.00 0.00 0.00 70 1011.8
20260509013113 17 190 4.8 9.7 0.00 0.00 0.00 69 1011.8
20260509013021 17 200 4.8 11.3 0.00 0.00 0.00 69 1011.8
20260509012927 17 181 4.8 11.3 0.00 0.00 0.00 69 1011.8
20260509012834 17 188 6.4 11.3 0.00 0.00 0.00 69 1011.8
20260509012720 17 205 6.4 11.3 0.00 0.00 0.00 69 1011.8
20260509012628 17 173 4.8 11.3 0.00 0.00 0.00 69 1011.8
20260509012520 17 182 4.8 11.3 0.00 0.00 0.00 69 1011.8
20260509012447 17 178 4.8 11.3 0.00 0.00 0.00 69 1011.8
20260509012311 17 195 6.4 11.3 0.00 0.00 0.00 69 1011.8
20260509012218 17 216 6.4 11.3 0.00 0.00 0.00 69 1011.7
20260509012146 17 176 8.0 11.3 0.00 0.00 0.00 69 1011.7
20260509012116 17 178 6.4 11.3 0.00 0.00 0.00 69 1011.7
20260509011814 18 192 4.8 11.3 0.00 0.00 0.00 69 1011.8
20260509011722 18 188 4.8 11.3 0.00 0.00 0.00 68 1011.8
20260509011630 18 184 6.4 11.3 0.00 0.00 0.00 68 1011.8
20260509011539 18 191 8.0 11.3 0.00 0.00 0.00 68 1011.8
20260509011425 18 207 8.0 11.3 0.00 0.00 0.00 68 1011.8
20260509011317 18 178 6.4 16.1 0.00 0.00 0.00 68 1011.7
20260509011225 18 238 4.8 16.1 0.00 0.00 0.00 68 1011.7
20260509011112 18 205 4.8 16.1 0.00 0.00 0.00 68 1011.7
20260509011039 18 146 4.8 19.3 0.00 0.00 0.00 68 1011.8
20260509010926 18 198 6.4 19.3 0.00 0.00 0.00 68 1011.8
20260509010814 18 174 8.0 19.3 0.00 0.00 0.00 68 1011.6
20260509010741 18 186 8.0 19.3 0.00 0.00 0.00 67 1011.6
20260509010630 18 211 9.7 19.3 0.00 0.00 0.00 68 1011.6
20260509010600 18 196 9.7 19.3 0.00 0.00 0.00 67 1011.7
20260509010333 18 186 9.7 19.3 0.00 0.00 0.00 67 1011.6
20260509010241 18 180 9.7 19.3 0.00 0.00 0.00 67 1011.7
20260509010127 18 205 9.7 19.3 0.00 0.00 0.00 67 1011.7
20260509010017 18 175 9.7 17.7 0.00 0.00 0.00 67 1011.6
20260509005924 18 217 11.3 17.7 0.00 0.00 0.00 67 1011.6
20260509005831 18 171 12.9 17.7 0.00 0.00 0.00 67 1011.6
20260509005719 18 205 11.3 17.7 0.00 0.00 0.00 67 1011.6
20260509005648 18 184 11.3 17.7 0.00 0.00 0.00 66 1011.6
20260509005514 18 186 8.0 17.7 0.00 0.00 0.00 67 1011.5
20260509005426 18 170 8.0 17.7 0.00 0.00 0.00 66 1011.5
20260509005314 18 194 8.0 17.7 0.00 0.00 0.00 66 1011.5
20260509005221 18 177 9.7 17.7 0.00 0.00 0.00 66 1011.5
20260509005129 18 184 9.7 17.7 0.00 0.00 0.00 66 1011.6
20260509005059 18 178 9.7 17.7 0.00 0.00 0.00 66 1011.6
20260509004817 18 239 9.7 19.3 0.00 0.00 0.00 66 1011.6
20260509004745 18 192 9.7 19.3 0.00 0.00 0.00 66 1011.6
20260509004630 18 176 9.7 19.3 0.00 0.00 0.00 66 1011.7
20260509004538 18 194 11.3 19.3 0.00 0.00 0.00 66 1011.8
20260509004425 18 190 12.9 19.3 0.00 0.00 0.00 66 1011.8
20260509004312 18 177 12.9 19.3 0.00 0.00 0.00 66 1011.7
20260509004244 18 207 12.9 19.3 0.00 0.00 0.00 66 1011.7
20260509004129 18 199 12.9 19.3 0.00 0.00 0.00 66 1011.6
20260509004016 18 196 12.9 19.3 0.00 0.00 0.00 66 1011.6
20260509003924 18 187 11.3 19.3 0.00 0.00 0.00 66 1011.6
20260509003851 18 242 11.3 19.3 0.00 0.00 0.00 65 1011.4
20260509003738 18 185 11.3 19.3 0.00 0.00 0.00 65 1011.5
20260509003625 18 210 11.3 19.3 0.00 0.00 0.00 65 1011.5
20260509003600 18 173 11.3 16.1 0.00 0.00 0.00 65 1011.6
20260509003332 18 198 9.7 19.3 0.00 0.00 0.00 65 1011.6
20260509003239 18 197 8.0 19.3 0.00 0.00 0.00 65 1011.6
20260509003126 19 221 8.0 19.3 0.00 0.00 0.00 65 1011.6
20260509003012 19 198 8.0 19.3 0.00 0.00 0.00 65 1011.7
20260509002924 19 138 8.0 19.3 0.00 0.00 0.00 65 1011.7
20260509002852 19 190 8.0 19.3 0.00 0.00 0.00 65 1011.6
20260509002717 19 137 8.0 19.3 0.00 0.00 0.00 65 1011.6
20260509002625 19 195 9.7 19.3 0.00 0.00 0.00 65 1011.6
20260509002513 19 200 11.3 19.3 0.00 0.00 0.00 65 1011.5
20260509002440 19 183 9.7 17.7 0.00 0.00 0.00 65 1011.6
20260509002347 19 200 9.7 17.7 0.00 0.00 0.00 65 1011.6
20260509002218 19 180 8.0 17.7 0.00 0.00 0.00 64 1011.6
20260509002126 19 212 9.7 17.7 0.00 0.00 0.00 64 1011.6
20260509002056 19 186 9.7 17.7 0.00 0.00 0.00 64 1011.6
20260509001829 19 227 11.3 17.7 0.00 0.00 0.00 64 1011.8
20260509001741 19 209 12.9 20.9 0.00 0.00 0.00 64 1011.8
20260509001628 19 188 11.3 20.9 0.00 0.00 0.00 64 1011.8
20260509001515 19 184 11.3 20.9 0.00 0.00 0.00 64 1011.8
20260509001423 19 186 9.7 20.9 0.00 0.00 0.00 64 1011.8
20260509001331 19 162 11.3 20.9 0.00 0.00 0.00 63 1011.9
20260509001219 19 190 9.7 20.9 0.00 0.00 0.00 63 1011.8
20260509001130 19 177 12.9 20.9 0.00 0.00 0.00 63 1011.8
20260509001016 19 163 12.9 20.9 0.00 0.00 0.00 63 1011.8
20260509000924 19 160 12.9 20.9 0.00 0.00 0.00 63 1011.8
20260509000831 19 156 11.3 20.9 0.00 0.00 0.00 63 1011.7
20260509000717 19 167 9.7 25.7 0.00 0.00 0.00 63 1011.7
20260509000643 19 219 11.3 25.7 0.00 0.00 0.00 63 1011.7
20260509000617 20 196 11.3 25.7 0.00 0.00 0.00 62 1011.8
20260509000330 20 194 14.5 25.7 0.00 0.00 0.00 62 1011.8
20260509000219 20 195 16.1 25.7 0.00 0.00 0.00 62 1011.7
20260509000123 20 206 14.5 25.7 0.00 0.00 0.00 61 1011.7